ECMWFFLT2_prec_precacc_120.txt.gz
Total_Precipitation_Accumulation
0.02 0.02 0.02 0.02 0.06 0.06 0.05 0.09 0.19 0.17 0.19 0.29 0.24 0.17 0.14 0.14 0.11 0.21 0.22 0.43 0.46 0.48 0.59 0.82 0.58 0.62 0.65 0.74 0.91 1.08 1.06 1.04 1.08 0.86 0.80 0.66 0.62 0.61 0.66 0.62 0.53 0.64 0.47 0.59 0.47 0.37 0.67 0.60 0.36 0.29 0.31 0.26
0.03 0.03 0.03 0.03 0.02 0.03 0.03 0.05 0.07 0.06 0.06 0.07 0.12 0.12 0.13 0.18 0.11 0.10 0.20 0.17 0.22 0.34 0.43 0.61 0.60 0.68 0.66 0.76 0.72 0.76 0.79 0.93 0.90 0.92 0.85 0.74 0.65 0.64 0.62 0.67 0.73 0.75 0.59 0.45 0.39 0.49 0.45 0.78 0.49 0.37 0.30 0.29
0.04 0.02 0.03 0.04 0.08 0.07 0.07 0.08 0.06 0.02 0.10 0.08 0.01 0.02 0.03 0.05 0.17 0.13 0.05 0.12 0.18 0.18 0.33 0.30 0.27 0.45 0.78 1.11 0.71 0.72 0.67 0.58 0.73 0.79 0.85 0.79 0.76 0.77 0.69 0.66 0.66 0.73 0.72 0.63 0.53 0.57 0.56 0.65 0.64 0.37 0.29 0.32
0.01 0.01 0.01 0.01 0.02 0.04 0.04 0.03 0.03 0.02 0.00 0.00 0.00 0.00 0.01 0.04 0.07 0.14 0.08 0.09 0.09 0.30 0.12 0.26 0.15 0.25 0.40 0.44 0.62 0.72 0.77 0.62 0.63 0.58 0.63 0.71 0.72 0.73 0.77 0.74 0.81 0.92 0.88 0.93 0.69 0.55 0.53 0.63 0.82 0.50 0.31 0.28
0.03 0.02 0.02 0.03 0.02 0.01 0.02 0.03 0.03 0.02 0.09 0.02 0.01 0.01 0.00 0.01 0.03 0.03 0.03 0.04 0.04 0.07 0.05 0.05 0.15 0.15 0.30 0.29 0.32 0.34 0.46 0.64 0.65 0.64 0.55 0.54 0.56 0.61 0.69 0.79 0.90 0.87 0.97 0.96 0.77 0.57 0.58 0.60 0.63 0.54 0.37 0.33
0.00 0.01 0.01 0.03 0.03 0.03 0.02 0.02 0.06 0.07 0.12 0.09 0.09 0.14 0.03 0.01 0.00 0.02 0.03 0.03 0.02 0.04 0.05 0.06 0.04 0.09 0.07 0.13 0.22 0.26 0.46 0.43 0.47 0.52 0.55 0.58 0.59 0.50 0.57 0.68 0.80 0.95 0.91 1.01 0.90 1.01 0.75 0.60 0.63 0.68 0.45 0.39
0.00 0.00 0.00 0.00 0.02 0.02 0.02 0.05 0.02 0.14 0.12 0.16 0.13 0.11 0.10 0.06 0.02 0.01 0.02 0.03 0.03 0.06 0.03 0.01 0.04 0.07 0.07 0.10 0.15 0.22 0.15 0.45 0.38 0.48 0.37 0.47 0.47 0.46 0.51 0.63 0.66 0.98 0.96 0.97 0.70 0.78 0.80 0.76 0.64 0.58 0.51 0.45
0.00 0.00 0.00 0.00 0.01 0.02 0.02 0.02 0.03 0.05 0.07 0.17 0.07 0.18 0.11 0.13 0.11 0.07 0.05 0.03 0.05 0.10 0.06 0.09 0.03 0.07 0.11 0.08 0.06 0.05 0.12 0.17 0.17 0.27 0.37 0.46 0.41 0.38 0.39 0.55 0.64 0.70 1.11 0.93 0.83 0.69 0.75 0.78 0.69 0.59 0.54 0.48
0.00 0.00 0.00 0.00 0.00 0.01 0.01 0.02 0.01 0.02 0.02 0.02 0.05 0.07 0.11 0.09 0.13 0.07 0.07 0.04 0.02 0.02 0.03 0.08 0.05 0.08 0.06 0.06 0.07 0.05 0.15 0.14 0.14 0.19 0.36 0.28 0.38 0.43 0.48 0.43 0.50 0.65 0.93 0.92 0.87 0.80 0.73 0.77 0.73 0.63 0.58 0.53
0.00 0.00 0.00 0.00 0.00 0.00 0.01 0.02 0.01 0.03 0.02 0.02 0.02 0.03 0.03 0.18 0.06 0.09 0.06 0.07 0.03 0.01 0.01 0.03 0.06 0.03 0.09 0.09 0.09 0.24 0.11 0.10 0.13 0.21 0.24 0.34 0.35 0.40 0.37 0.45 0.46 0.50 0.64 0.83 0.92 0.90 0.78 0.76 0.71 0.69 0.60 0.53
0.00 0.00 0.00 0.00 0.00 0.00 0.00 0.01 0.01 0.01 0.02 0.03 0.04 0.18 0.14 0.05 0.14 0.26 0.09 0.11 0.16 0.11 0.08 0.04 0.05 0.05 0.08 0.06 0.04 0.06 0.12 0.06 0.16 0.10 0.11 0.11 0.14 0.27 0.34 0.37 0.37 0.50 0.55 0.60 0.68 0.82 0.95 0.88 0.77 0.70 0.65 0.55
0.00 0.00 0.00 0.00 0.00 0.00 0.00 0.01 0.01 0.00 0.02 0.02 0.04 0.06 0.09 0.07 0.06 0.09 0.06 0.18 0.10 0.11 0.26 0.11 0.20 0.12 0.05 0.01 0.06 0.04 0.08 0.06 0.03 0.12 0.11 0.09 0.06 0.11 0.20 0.30 0.35 0.42 0.46 0.59 0.58 0.62 0.76 0.87 0.80 0.74 0.71 0.62
0.00 0.00 0.00 0.00 0.00 0.00 0.00 0.00 0.00 0.01 0.01 0.03 0.05 0.03 0.05 0.07 0.09 0.15 0.17 0.12 0.06 0.20 0.14 0.05 0.05 0.11 0.09 0.04 0.11 0.19 0.03 0.02 0.01 0.04 0.07 0.04 0.05 0.09 0.13 0.17 0.27 0.35 0.38 0.47 0.60 0.58 0.59 0.70 0.76 0.74 0.75 0.67
0.00 0.00 0.00 0.00 0.00 0.00 0.00 0.00 0.00 0.00 0.00 0.00 0.00 0.04 0.20 0.09 0.17 0.08 0.24 0.23 0.18 0.18 0.31 0.11 0.16 0.21 0.17 0.16 0.10 0.05 0.04 0.04 0.03 0.05 0.05 0.05 0.03 0.06 0.06 0.07 0.11 0.23 0.33 0.35 0.44 0.56 0.59 0.55 0.61 0.70 0.70 0.72
0.00 0.00 0.00 0.00 0.00 0.00 0.00 0.00 0.00 0.00 0.00 0.00 0.00 0.00 0.02 0.08 0.15 0.21 0.15 0.28 0.14 0.20 0.09 0.13 0.08 0.09 0.14 0.21 0.06 0.29 0.05 0.11 0.08 0.05 0.04 0.04 0.04 0.10 0.03 0.03 0.09 0.09 0.12 0.23 0.32 0.42 0.49 0.57 0.54 0.52 0.68 0.68
0.00 0.00 0.00 0.00 0.00 0.00 0.00 0.00 0.00 0.00 0.00 0.00 0.00 0.00 0.00 0.00 0.04 0.05 0.19 0.29 0.18 0.23 0.24 0.26 0.19 0.15 0.13 0.10 0.14 0.11 0.08 0.06 0.03 0.08 0.20 0.17 0.06 0.08 0.04 0.03 0.02 0.07 0.07 0.08 0.15 0.28 0.35 0.44 0.53 0.53 0.55 0.57
0.00 0.00 0.00 0.00 0.00 0.00 0.00 0.00 0.00 0.00 0.00 0.00 0.00 0.00 0.00 0.00 0.00 0.00 0.01 0.03 0.18 0.20 0.22 0.22 0.27 0.25 0.16 0.14 0.20 0.22 0.15 0.22 0.24 0.18 0.06 0.06 0.07 0.13 0.09 0.14 0.06 0.09 0.07 0.06 0.08 0.08 0.17 0.34 0.38 0.45 0.53 0.49
0.00 0.00 0.00 0.00 0.00 0.00 0.00 0.00 0.00 0.00 0.00 0.00 0.00 0.00 0.00 0.00 0.00 0.00 0.00 0.00 0.02 0.08 0.15 0.27 0.22 0.27 0.22 0.18 0.24 0.22 0.12 0.20 0.21 0.24 0.18 0.22 0.11 0.12 0.16 0.12 0.09 0.07 0.07 0.06 0.06 0.08 0.09 0.09 0.27 0.30 0.35 0.47
0.00 0.00 0.00 0.00 0.00 0.00 0.00 0.00 0.00 0.00 0.00 0.00 0.00 0.00 0.00 0.00 0.00 0.00 0.00 0.00 0.00 0.01 0.03 0.08 0.17 0.18 0.24 0.22 0.17 0.17 0.18 0.19 0.16 0.33 0.24 0.37 0.16 0.15 0.13 0.10 0.09 0.12 0.14 0.13 0.07 0.06 0.06 0.07 0.12 0.19 0.28 0.29
0.00 0.00 0.00 0.00 0.00 0.00 0.00 0.00 0.00 0.00 0.00 0.00 0.00 0.00 0.00 0.00 0.00 0.00 0.00 0.00 0.00 0.00 0.01 0.01 0.06 0.08 0.14 0.25 0.18 0.22 0.22 0.25 0.20 0.17 0.28 0.25 0.22 0.22 0.18 0.17 0.14 0.12 0.10 0.09 0.11 0.09 0.06 0.05 0.06 0.10 0.14 0.20
0.00 0.00 0.00 0.00 0.00 0.00 0.00 0.00 0.00 0.00 0.00 0.00 0.00 0.00 0.00 0.00 0.00 0.00 0.00 0.00 0.00 0.00 0.00 0.01 0.01 0.03 0.06 0.09 0.17 0.21 0.19 0.13 0.21 0.19 0.20 0.24 0.33 0.23 0.29 0.24 0.18 0.13 0.12 0.10 0.08 0.08 0.11 0.09 0.07 0.05 0.07 0.12
0.00 0.00 0.00 0.00 0.00 0.00 0.00 0.00 0.00 0.00 0.00 0.00 0.00 0.00 0.00 0.00 0.00 0.00 0.00 0.00 0.00 0.00 0.00 0.00 0.00 0.00 0.02 0.05 0.10 0.14 0.17 0.16 0.12 0.14 0.17 0.19 0.23 0.25 0.21 0.24 0.23 0.24 0.16 0.11 0.09 0.08 0.06 0.06 0.09 0.10 0.05 0.06
0.00 0.00 0.00 0.00 0.00 0.00 0.00 0.00 0.00 0.00 0.00 0.00 0.00 0.00 0.00 0.00 0.00 0.00 0.00 0.00 0.00 0.00 0.00 0.00 0.00 0.00 0.00 0.02 0.07 0.11 0.13 0.16 0.16 0.12 0.10 0.13 0.13 0.19 0.26 0.23 0.18 0.17 0.16 0.16 0.16 0.11 0.08 0.06 0.05 0.05 0.07 0.07
0.00 0.00 0.00 0.00 0.00 0.00 0.00 0.00 0.00 0.01 0.00 0.00 0.00 0.00 0.00 0.00 0.00 0.00 0.00 0.00 0.00 0.00 0.00 0.00 0.00 0.00 0.00 0.01 0.04 0.09 0.13 0.13 0.15 0.17 0.16 0.12 0.10 0.12 0.15 0.22 0.23 0.21 0.22 0.21 0.20 0.19 0.15 0.12 0.08 0.06 0.05 0.05
0.01 0.01 0.01 0.01 0.00 0.00 0.00 0.01 0.01 0.01 0.01 0.01 0.00 0.00 0.01 0.01 0.00 0.00 0.00 0.00 0.00 0.00 0.00 0.00 0.00 0.00 0.01 0.01 0.02 0.07 0.11 0.14 0.16 0.17 0.18 0.18 0.17 0.17 0.15 0.15 0.17 0.21 0.24 0.27 0.30 0.28 0.24 0.19 0.15 0.13 0.10 0.09
0.03 0.04 0.09 0.05 0.07 0.07 0.04 0.03 0.02 0.01 0.00 0.02 0.01 0.02 0.01 0.01 0.01 0.02 0.02 0.01 0.02 0.03 0.01 0.01 0.01 0.02 0.02 0.19 0.01 0.03 0.07 0.10 0.14 0.18 0.21 0.22 0.24 0.23 0.21 0.18 0.12 0.15 0.25 0.50 0.39 0.30 0.25 0.19 0.17 0.17 0.15 0.14
0.01 0.01 0.02 0.03 0.08 0.14 0.12 0.23 0.16 0.11 0.11 0.06 0.06 0.03 0.02 0.02 0.02 0.02 0.03 0.03 0.06 0.07 0.05 0.11 0.08 0.07 0.09 0.06 0.03 0.03 0.05 0.08 0.11 0.13 0.16 0.19 0.21 0.23 0.21 0.19 0.16 0.22 0.23 0.30 0.31 0.25 0.24 0.23 0.18 0.15 0.15 0.15
0.01 0.01 0.01 0.00 0.00 0.00 0.01 0.03 0.06 0.13 0.08 0.15 0.13 0.07 0.07 0.08 0.15 0.13 0.07 0.06 0.03 0.04 0.05 0.04 0.10 0.09 0.04 0.04 0.03 0.05 0.06 0.06 0.09 0.11 0.13 0.15 0.17 0.19 0.19 0.19 0.20 0.16 0.18 0.21 0.25 0.33 0.38 0.41 0.27 0.20 0.12 0.07
0.01 0.01 0.01 0.01 0.01 0.01 0.01 0.01 0.00 0.01 0.03 0.05 0.08 0.07 0.13 0.09 0.07 0.11 0.07 0.03 0.05 0.04 0.11 0.07 0.04 0.07 0.11 0.07 0.05 0.06 0.06 0.06 0.06 0.06 0.10 0.12 0.14 0.16 0.19 0.19 0.14 0.13 0.14 0.15 0.19 0.35 0.32 0.40 0.38 0.32 0.26 0.12
0.01 0.01 0.02 0.01 0.01 0.01 0.01 0.01 0.01 0.01 0.00 0.00 0.00 0.01 0.02 0.03 0.03 0.03 0.03 0.04 0.04 0.03 0.03 0.04 0.07 0.07 0.03 0.04 0.06 0.05 0.05 0.05 0.06 0.08 0.07 0.08 0.11 0.15 0.15 0.17 0.18 0.16 0.11 0.12 0.16 0.24 0.35 0.37 0.28 0.21 0.13 0.11
0.01 0.01 0.01 0.01 0.01 0.01 0.01 0.01 0.00 0.00 0.00 0.00 0.01 0.00 0.00 0.01 0.01 0.02 0.04 0.02 0.02 0.04 0.05 0.05 0.08 0.06 0.06 0.06 0.07 0.06 0.06 0.06 0.06 0.06 0.22 0.24 0.13 0.13 0.14 0.15 0.19 0.18 0.15 0.10 0.12 0.19 0.23 0.22 0.25 0.22 0.15 0.12

ECMWFFLT2_prec_precacc_123.txt.gz
Total_Precipitation_Accumulation
0.02 0.02 0.02 0.02 0.06 0.06 0.05 0.09 0.19 0.17 0.19 0.29 0.24 0.17 0.14 0.14 0.11 0.21 0.22 0.43 0.46 0.48 0.59 0.82 0.58 0.62 0.65 0.74 0.91 1.08 1.06 1.04 1.08 0.86 0.80 0.66 0.62 0.61 0.66 0.62 0.53 0.64 0.47 0.59 0.47 0.37 0.67 0.60 0.36 0.29 0.31 0.26
0.03 0.03 0.03 0.03 0.02 0.03 0.03 0.05 0.07 0.06 0.06 0.07 0.12 0.12 0.13 0.18 0.11 0.10 0.20 0.17 0.22 0.34 0.43 0.61 0.60 0.68 0.66 0.76 0.72 0.76 0.79 0.93 0.90 0.92 0.85 0.74 0.65 0.64 0.62 0.67 0.73 0.75 0.59 0.45 0.39 0.49 0.45 0.78 0.49 0.37 0.30 0.29
0.04 0.02 0.03 0.04 0.08 0.07 0.07 0.08 0.06 0.02 0.10 0.08 0.01 0.02 0.03 0.05 0.17 0.13 0.05 0.12 0.18 0.18 0.33 0.30 0.27 0.45 0.78 1.11 0.71 0.72 0.67 0.58 0.73 0.79 0.85 0.79 0.76 0.77 0.69 0.66 0.66 0.73 0.72 0.63 0.53 0.57 0.56 0.65 0.64 0.37 0.29 0.32
0.01 0.01 0.01 0.01 0.02 0.04 0.04 0.03 0.03 0.02 0.00 0.00 0.00 0.00 0.01 0.04 0.07 0.14 0.08 0.09 0.09 0.30 0.12 0.26 0.15 0.25 0.40 0.44 0.62 0.72 0.77 0.62 0.63 0.58 0.63 0.71 0.72 0.73 0.77 0.74 0.81 0.92 0.88 0.93 0.69 0.55 0.53 0.63 0.82 0.50 0.31 0.28
0.03 0.02 0.02 0.03 0.02 0.01 0.02 0.03 0.03 0.02 0.09 0.02 0.01 0.01 0.00 0.01 0.03 0.03 0.03 0.04 0.04 0.07 0.05 0.05 0.15 0.15 0.30 0.29 0.32 0.34 0.46 0.64 0.65 0.64 0.55 0.54 0.56 0.61 0.69 0.79 0.90 0.87 0.97 0.96 0.77 0.57 0.58 0.60 0.63 0.54 0.37 0.33
0.00 0.01 0.01 0.03 0.03 0.03 0.02 0.02 0.06 0.07 0.12 0.09 0.09 0.14 0.03 0.01 0.00 0.02 0.03 0.03 0.02 0.04 0.05 0.06 0.04 0.09 0.07 0.13 0.22 0.26 0.46 0.43 0.47 0.52 0.55 0.58 0.59 0.50 0.57 0.68 0.80 0.95 0.91 1.01 0.90 1.01 0.75 0.60 0.63 0.68 0.45 0.39
0.00 0.00 0.00 0.00 0.02 0.02 0.02 0.05 0.02 0.14 0.12 0.16 0.13 0.11 0.10 0.06 0.02 0.01 0.02 0.03 0.03 0.06 0.03 0.01 0.04 0.07 0.07 0.10 0.15 0.22 0.15 0.45 0.38 0.48 0.37 0.47 0.47 0.46 0.51 0.63 0.66 0.98 0.96 0.97 0.70 0.78 0.80 0.76 0.64 0.58 0.51 0.45
0.00 0.00 0.00 0.00 0.01 0.02 0.02 0.02 0.03 0.05 0.07 0.17 0.07 0.18 0.11 0.13 0.11 0.07 0.05 0.03 0.05 0.10 0.06 0.09 0.03 0.07 0.11 0.08 0.06 0.05 0.12 0.17 0.17 0.27 0.37 0.46 0.41 0.38 0.39 0.55 0.64 0.70 1.11 0.93 0.83 0.69 0.75 0.78 0.69 0.59 0.54 0.48
0.00 0.00 0.00 0.00 0.00 0.01 0.01 0.02 0.01 0.02 0.02 0.02 0.05 0.07 0.11 0.09 0.13 0.07 0.07 0.04 0.02 0.02 0.03 0.08 0.05 0.08 0.06 0.06 0.07 0.05 0.15 0.14 0.14 0.19 0.36 0.28 0.38 0.43 0.48 0.43 0.50 0.65 0.93 0.92 0.87 0.80 0.73 0.77 0.73 0.63 0.58 0.53
0.00 0.00 0.00 0.00 0.00 0.00 0.01 0.02 0.01 0.03 0.02 0.02 0.02 0.03 0.03 0.18 0.06 0.09 0.06 0.07 0.03 0.01 0.01 0.03 0.06 0.03 0.09 0.09 0.09 0.24 0.11 0.10 0.13 0.21 0.24 0.34 0.35 0.40 0.37 0.45 0.46 0.50 0.64 0.83 0.92 0.90 0.78 0.76 0.71 0.69 0.60 0.53
0.00 0.00 0.00 0.00 0.00 0.00 0.00 0.01 0.01 0.01 0.02 0.03 0.04 0.18 0.14 0.05 0.14 0.26 0.09 0.11 0.16 0.11 0.08 0.04 0.05 0.05 0.08 0.06 0.04 0.06 0.12 0.06 0.16 0.10 0.11 0.11 0.14 0.27 0.34 0.37 0.37 0.50 0.55 0.60 0.68 0.82 0.95 0.88 0.77 0.70 0.65 0.55
0.00 0.00 0.00 0.00 0.00 0.00 0.00 0.01 0.01 0.00 0.02 0.02 0.04 0.06 0.09 0.07 0.06 0.09 0.06 0.18 0.10 0.11 0.26 0.11 0.20 0.12 0.05 0.01 0.06 0.04 0.08 0.06 0.03 0.12 0.11 0.09 0.06 0.11 0.20 0.30 0.35 0.42 0.46 0.59 0.58 0.62 0.76 0.87 0.80 0.74 0.71 0.62
0.00 0.00 0.00 0.00 0.00 0.00 0.00 0.00 0.00 0.01 0.01 0.03 0.05 0.03 0.05 0.07 0.09 0.15 0.17 0.12 0.06 0.20 0.14 0.05 0.05 0.11 0.09 0.04 0.11 0.19 0.03 0.02 0.01 0.04 0.07 0.04 0.05 0.09 0.13 0.17 0.27 0.35 0.38 0.47 0.60 0.58 0.59 0.70 0.76 0.74 0.75 0.67
0.00 0.00 0.00 0.00 0.00 0.00 0.00 0.00 0.00 0.00 0.00 0.00 0.00 0.04 0.20 0.09 0.17 0.08 0.24 0.23 0.18 0.18 0.31 0.11 0.16 0.21 0.17 0.16 0.10 0.05 0.04 0.04 0.03 0.05 0.05 0.05 0.03 0.06 0.06 0.07 0.11 0.23 0.33 0.35 0.44 0.56 0.59 0.55 0.61 0.70 0.70 0.72
0.00 0.00 0.00 0.00 0.00 0.00 0.00 0.00 0.00 0.00 0.00 0.00 0.00 0.00 0.02 0.08 0.15 0.21 0.15 0.28 0.14 0.20 0.09 0.13 0.08 0.09 0.14 0.21 0.06 0.29 0.05 0.11 0.08 0.05 0.04 0.04 0.04 0.10 0.03 0.03 0.09 0.09 0.12 0.23 0.32 0.42 0.49 0.57 0.54 0.52 0.68 0.68
0.00 0.00 0.00 0.00 0.00 0.00 0.00 0.00 0.00 0.00 0.00 0.00 0.00 0.00 0.00 0.00 0.04 0.05 0.19 0.29 0.18 0.23 0.24 0.26 0.19 0.15 0.13 0.10 0.14 0.11 0.08 0.06 0.03 0.08 0.20 0.17 0.06 0.08 0.04 0.03 0.02 0.07 0.07 0.08 0.15 0.28 0.35 0.44 0.53 0.53 0.55 0.57
0.00 0.00 0.00 0.00 0.00 0.00 0.00 0.00 0.00 0.00 0.00 0.00 0.00 0.00 0.00 0.00 0.00 0.00 0.01 0.03 0.18 0.20 0.22 0.22 0.27 0.25 0.16 0.14 0.20 0.22 0.15 0.22 0.24 0.18 0.06 0.06 0.07 0.13 0.09 0.14 0.06 0.09 0.07 0.06 0.08 0.08 0.17 0.34 0.38 0.45 0.53 0.49
0.00 0.00 0.00 0.00 0.00 0.00 0.00 0.00 0.00 0.00 0.00 0.00 0.00 0.00 0.00 0.00 0.00 0.00 0.00 0.00 0.02 0.08 0.15 0.27 0.22 0.27 0.22 0.18 0.24 0.22 0.12 0.20 0.21 0.24 0.18 0.22 0.11 0.12 0.16 0.12 0.09 0.07 0.07 0.06 0.06 0.08 0.09 0.09 0.27 0.30 0.35 0.47
0.00 0.00 0.00 0.00 0.00 0.00 0.00 0.00 0.00 0.00 0.00 0.00 0.00 0.00 0.00 0.00 0.00 0.00 0.00 0.00 0.00 0.01 0.03 0.08 0.17 0.18 0.24 0.22 0.17 0.17 0.18 0.19 0.16 0.33 0.24 0.37 0.16 0.15 0.13 0.10 0.09 0.12 0.14 0.13 0.07 0.06 0.06 0.07 0.12 0.19 0.28 0.29
0.00 0.00 0.00 0.00 0.00 0.00 0.00 0.00 0.00 0.00 0.00 0.00 0.00 0.00 0.00 0.00 0.00 0.00 0.00 0.00 0.00 0.00 0.01 0.01 0.06 0.08 0.14 0.25 0.18 0.22 0.22 0.25 0.20 0.17 0.28 0.25 0.22 0.22 0.18 0.17 0.14 0.12 0.10 0.09 0.11 0.09 0.06 0.05 0.06 0.10 0.14 0.20
0.00 0.00 0.00 0.00 0.00 0.00 0.00 0.00 0.00 0.00 0.00 0.00 0.00 0.00 0.00 0.00 0.00 0.00 0.00 0.00 0.00 0.00 0.00 0.01 0.01 0.03 0.06 0.09 0.17 0.21 0.19 0.13 0.21 0.19 0.20 0.24 0.33 0.23 0.29 0.24 0.18 0.13 0.12 0.10 0.08 0.08 0.11 0.09 0.07 0.05 0.07 0.12
0.00 0.00 0.00 0.00 0.00 0.00 0.00 0.00 0.00 0.00 0.00 0.00 0.00 0.00 0.00 0.00 0.00 0.00 0.00 0.00 0.00 0.00 0.00 0.00 0.00 0.00 0.02 0.05 0.10 0.14 0.17 0.16 0.12 0.14 0.17 0.19 0.23 0.25 0.21 0.24 0.23 0.24 0.16 0.11 0.09 0.08 0.06 0.06 0.09 0.10 0.05 0.06
0.00 0.00 0.00 0.00 0.00 0.00 0.00 0.00 0.00 0.00 0.00 0.00 0.00 0.00 0.00 0.00 0.00 0.00 0.00 0.00 0.00 0.00 0.00 0.00 0.00 0.00 0.00 0.02 0.07 0.11 0.13 0.16 0.16 0.12 0.10 0.13 0.13 0.19 0.26 0.23 0.18 0.17 0.16 0.16 0.16 0.11 0.08 0.06 0.05 0.05 0.07 0.07
0.00 0.00 0.00 0.00 0.00 0.00 0.00 0.00 0.00 0.01 0.00 0.00 0.00 0.00 0.00 0.00 0.00 0.00 0.00 0.00 0.00 0.00 0.00 0.00 0.00 0.00 0.00 0.01 0.04 0.09 0.13 0.13 0.15 0.17 0.16 0.12 0.10 0.12 0.15 0.22 0.23 0.21 0.22 0.21 0.20 0.19 0.15 0.12 0.08 0.06 0.05 0.05
0.01 0.02 0.01 0.01 0.00 0.00 0.00 0.01 0.01 0.01 0.01 0.01 0.00 0.00 0.01 0.01 0.00 0.00 0.00 0.00 0.00 0.00 0.00 0.00 0.00 0.00 0.01 0.01 0.02 0.07 0.11 0.14 0.16 0.17 0.18 0.18 0.17 0.17 0.15 0.15 0.17 0.21 0.24 0.27 0.30 0.28 0.24 0.19 0.15 0.13 0.10 0.09
0.03 0.04 0.09 0.05 0.07 0.07 0.04 0.03 0.02 0.01 0.00 0.02 0.01 0.02 0.01 0.01 0.01 0.02 0.02 0.01 0.02 0.03 0.01 0.01 0.01 0.02 0.02 0.19 0.01 0.03 0.07 0.10 0.14 0.18 0.21 0.22 0.24 0.23 0.21 0.18 0.12 0.15 0.25 0.50 0.39 0.30 0.25 0.19 0.17 0.17 0.15 0.14
0.01 0.01 0.02 0.03 0.08 0.14 0.12 0.23 0.16 0.11 0.11 0.06 0.06 0.03 0.03 0.02 0.02 0.02 0.03 0.03 0.06 0.07 0.05 0.11 0.08 0.07 0.09 0.06 0.03 0.03 0.05 0.08 0.11 0.13 0.16 0.19 0.21 0.23 0.21 0.19 0.16 0.22 0.23 0.30 0.31 0.25 0.24 0.23 0.18 0.15 0.15 0.15
0.01 0.01 0.01 0.00 0.00 0.00 0.01 0.03 0.06 0.13 0.08 0.15 0.13 0.07 0.07 0.08 0.15 0.13 0.07 0.06 0.03 0.04 0.05 0.04 0.10 0.09 0.04 0.04 0.03 0.05 0.06 0.06 0.09 0.11 0.13 0.15 0.17 0.19 0.19 0.19 0.20 0.16 0.18 0.21 0.25 0.33 0.38 0.41 0.27 0.20 0.12 0.07
0.01 0.01 0.01 0.01 0.01 0.01 0.01 0.01 0.00 0.01 0.03 0.05 0.08 0.07 0.13 0.09 0.07 0.11 0.07 0.03 0.05 0.04 0.11 0.07 0.04 0.07 0.11 0.07 0.05 0.06 0.06 0.06 0.06 0.06 0.10 0.12 0.14 0.16 0.19 0.19 0.14 0.13 0.14 0.15 0.19 0.35 0.32 0.40 0.38 0.32 0.26 0.12
0.01 0.01 0.02 0.01 0.01 0.01 0.01 0.01 0.01 0.01 0.00 0.00 0.00 0.01 0.02 0.03 0.03 0.03 0.03 0.04 0.04 0.03 0.03 0.04 0.07 0.07 0.03 0.04 0.06 0.05 0.05 0.05 0.06 0.08 0.07 0.08 0.11 0.15 0.15 0.17 0.18 0.16 0.11 0.12 0.16 0.24 0.35 0.37 0.28 0.21 0.13 0.11
0.01 0.01 0.01 0.01 0.01 0.01 0.01 0.01 0.00 0.00 0.00 0.00 0.01 0.00 0.00 0.01 0.01 0.02 0.04 0.02 0.02 0.04 0.05 0.05 0.08 0.06 0.06 0.06 0.07 0.06 0.06 0.06 0.06 0.06 0.22 0.24 0.13 0.13 0.14 0.15 0.19 0.18 0.15 0.10 0.12 0.19 0.23 0.22 0.25 0.22 0.15 0.12

ECMWFFLT2_prec_precacc_126.txt.gz
Total_Precipitation_Accumulation
0.07 0.05 0.04 0.04 0.06 0.07 0.05 0.10 0.21 0.19 0.20 0.30 0.24 0.17 0.14 0.14 0.11 0.21 0.22 0.43 0.46 0.48 0.59 0.82 0.58 0.62 0.65 0.74 0.91 1.08 1.06 1.04 1.08 0.86 0.80 0.66 0.62 0.61 0.66 0.62 0.53 0.64 0.47 0.59 0.47 0.37 0.67 0.60 0.36 0.29 0.31 0.26
0.06 0.03 0.03 0.03 0.03 0.04 0.03 0.05 0.07 0.07 0.07 0.07 0.12 0.12 0.13 0.18 0.11 0.10 0.20 0.17 0.22 0.34 0.43 0.61 0.60 0.68 0.66 0.76 0.72 0.76 0.79 0.93 0.90 0.92 0.85 0.74 0.65 0.64 0.62 0.67 0.73 0.75 0.59 0.45 0.39 0.49 0.45 0.78 0.49 0.37 0.30 0.29
0.07 0.03 0.03 0.04 0.08 0.07 0.07 0.08 0.06 0.02 0.10 0.08 0.01 0.02 0.03 0.05 0.17 0.13 0.05 0.12 0.18 0.18 0.33 0.30 0.27 0.45 0.78 1.11 0.71 0.72 0.67 0.58 0.73 0.79 0.85 0.79 0.76 0.77 0.69 0.66 0.66 0.73 0.72 0.63 0.53 0.57 0.56 0.65 0.64 0.37 0.29 0.32
0.08 0.02 0.01 0.01 0.02 0.04 0.04 0.03 0.03 0.02 0.00 0.00 0.00 0.00 0.01 0.04 0.07 0.14 0.08 0.09 0.09 0.30 0.12 0.26 0.15 0.25 0.40 0.44 0.62 0.72 0.77 0.62 0.63 0.58 0.63 0.71 0.72 0.73 0.77 0.74 0.81 0.92 0.88 0.93 0.69 0.55 0.53 0.63 0.82 0.50 0.31 0.28
0.03 0.03 0.03 0.04 0.02 0.01 0.02 0.03 0.03 0.02 0.09 0.02 0.01 0.01 0.00 0.01 0.03 0.03 0.03 0.04 0.04 0.07 0.05 0.05 0.15 0.15 0.30 0.29 0.32 0.34 0.46 0.64 0.65 0.64 0.55 0.54 0.56 0.61 0.69 0.79 0.90 0.87 0.97 0.96 0.77 0.57 0.58 0.60 0.63 0.54 0.37 0.33
0.00 0.01 0.02 0.03 0.03 0.03 0.02 0.02 0.06 0.07 0.12 0.09 0.09 0.14 0.03 0.01 0.00 0.02 0.03 0.03 0.02 0.04 0.05 0.06 0.04 0.09 0.07 0.13 0.22 0.26 0.46 0.43 0.47 0.52 0.55 0.58 0.59 0.50 0.57 0.68 0.80 0.95 0.91 1.01 0.90 1.01 0.75 0.60 0.63 0.68 0.45 0.39
0.00 0.00 0.00 0.00 0.02 0.02 0.02 0.05 0.02 0.14 0.12 0.16 0.13 0.11 0.10 0.06 0.02 0.01 0.02 0.03 0.03 0.06 0.03 0.01 0.04 0.07 0.07 0.10 0.15 0.22 0.15 0.45 0.38 0.48 0.37 0.47 0.47 0.46 0.51 0.63 0.66 0.98 0.96 0.97 0.70 0.78 0.80 0.76 0.64 0.58 0.51 0.45
0.00 0.00 0.00 0.00 0.01 0.02 0.02 0.02 0.03 0.05 0.07 0.17 0.07 0.18 0.11 0.13 0.11 0.07 0.05 0.03 0.05 0.10 0.06 0.09 0.03 0.07 0.11 0.08 0.06 0.05 0.12 0.17 0.17 0.27 0.37 0.46 0.41 0.38 0.39 0.55 0.64 0.70 1.11 0.93 0.83 0.69 0.75 0.78 0.69 0.59 0.54 0.48
0.00 0.00 0.00 0.00 0.00 0.01 0.01 0.02 0.01 0.02 0.02 0.02 0.05 0.07 0.11 0.09 0.13 0.07 0.07 0.04 0.02 0.02 0.03 0.08 0.05 0.08 0.06 0.06 0.07 0.05 0.15 0.14 0.14 0.19 0.36 0.28 0.38 0.43 0.48 0.43 0.50 0.65 0.93 0.92 0.87 0.80 0.73 0.77 0.73 0.63 0.58 0.53
0.00 0.01 0.00 0.00 0.00 0.00 0.01 0.02 0.01 0.03 0.02 0.02 0.02 0.03 0.03 0.18 0.06 0.09 0.06 0.07 0.03 0.01 0.01 0.03 0.06 0.03 0.09 0.09 0.09 0.24 0.11 0.10 0.13 0.21 0.24 0.34 0.35 0.40 0.37 0.45 0.46 0.50 0.64 0.83 0.92 0.90 0.78 0.76 0.71 0.69 0.60 0.53
0.00 0.00 0.00 0.00 0.00 0.00 0.00 0.01 0.01 0.01 0.02 0.03 0.04 0.18 0.14 0.05 0.14 0.26 0.09 0.11 0.16 0.11 0.08 0.04 0.05 0.05 0.08 0.06 0.04 0.06 0.12 0.06 0.16 0.10 0.11 0.11 0.14 0.27 0.34 0.37 0.37 0.50 0.55 0.60 0.68 0.82 0.95 0.88 0.77 0.70 0.65 0.55
0.00 0.00 0.00 0.00 0.00 0.00 0.00 0.01 0.01 0.00 0.02 0.02 0.04 0.06 0.09 0.07 0.06 0.09 0.06 0.18 0.10 0.11 0.26 0.11 0.20 0.12 0.05 0.01 0.06 0.04 0.08 0.06 0.03 0.12 0.11 0.09 0.06 0.11 0.20 0.30 0.35 0.42 0.46 0.59 0.58 0.62 0.76 0.87 0.80 0.74 0.71 0.62
0.00 0.00 0.00 0.00 0.00 0.00 0.00 0.00 0.00 0.01 0.01 0.03 0.05 0.03 0.05 0.07 0.09 0.15 0.17 0.12 0.06 0.20 0.14 0.05 0.05 0.11 0.09 0.04 0.11 0.19 0.03 0.02 0.01 0.04 0.07 0.04 0.05 0.09 0.13 0.17 0.27 0.35 0.38 0.47 0.60 0.58 0.59 0.70 0.76 0.74 0.75 0.67
0.00 0.00 0.00 0.00 0.00 0.00 0.00 0.00 0.00 0.00 0.00 0.00 0.00 0.04 0.20 0.09 0.17 0.08 0.24 0.23 0.18 0.18 0.31 0.11 0.16 0.21 0.17 0.16 0.10 0.05 0.04 0.04 0.03 0.05 0.05 0.05 0.03 0.06 0.06 0.07 0.11 0.23 0.33 0.35 0.44 0.56 0.59 0.55 0.61 0.70 0.70 0.72
0.00 0.00 0.00 0.00 0.00 0.00 0.00 0.00 0.00 0.00 0.00 0.00 0.00 0.00 0.02 0.08 0.15 0.21 0.15 0.28 0.14 0.20 0.09 0.13 0.08 0.09 0.14 0.21 0.06 0.29 0.05 0.11 0.08 0.05 0.04 0.04 0.04 0.10 0.03 0.03 0.09 0.09 0.12 0.23 0.32 0.42 0.49 0.57 0.54 0.52 0.68 0.68
0.00 0.00 0.00 0.00 0.00 0.00 0.00 0.00 0.00 0.00 0.00 0.00 0.00 0.00 0.00 0.00 0.04 0.05 0.19 0.29 0.18 0.23 0.24 0.26 0.19 0.15 0.13 0.10 0.14 0.11 0.08 0.06 0.03 0.08 0.20 0.17 0.06 0.08 0.04 0.03 0.02 0.07 0.07 0.08 0.15 0.28 0.35 0.44 0.53 0.53 0.55 0.57
0.00 0.00 0.00 0.00 0.00 0.00 0.00 0.00 0.00 0.00 0.00 0.00 0.00 0.00 0.00 0.00 0.00 0.00 0.01 0.03 0.18 0.20 0.22 0.22 0.27 0.25 0.16 0.14 0.20 0.22 0.15 0.22 0.24 0.18 0.06 0.06 0.07 0.13 0.09 0.14 0.06 0.09 0.07 0.06 0.08 0.08 0.17 0.34 0.38 0.45 0.53 0.49
0.00 0.00 0.00 0.00 0.00 0.00 0.00 0.00 0.00 0.00 0.00 0.00 0.00 0.00 0.00 0.00 0.00 0.00 0.00 0.00 0.02 0.08 0.15 0.27 0.22 0.27 0.22 0.18 0.24 0.22 0.12 0.20 0.21 0.24 0.18 0.22 0.11 0.12 0.16 0.12 0.09 0.07 0.07 0.06 0.06 0.08 0.09 0.09 0.27 0.30 0.35 0.47
0.00 0.00 0.00 0.00 0.00 0.00 0.00 0.00 0.00 0.00 0.00 0.00 0.00 0.00 0.00 0.00 0.00 0.00 0.00 0.00 0.00 0.01 0.03 0.08 0.17 0.18 0.24 0.22 0.17 0.17 0.18 0.19 0.16 0.33 0.24 0.37 0.16 0.15 0.13 0.10 0.09 0.12 0.14 0.13 0.07 0.06 0.06 0.07 0.12 0.19 0.28 0.29
0.00 0.00 0.00 0.00 0.00 0.00 0.00 0.00 0.00 0.00 0.00 0.00 0.00 0.00 0.00 0.00 0.00 0.00 0.00 0.00 0.00 0.00 0.01 0.01 0.06 0.08 0.14 0.25 0.18 0.22 0.22 0.25 0.20 0.17 0.28 0.25 0.22 0.22 0.18 0.17 0.14 0.12 0.10 0.09 0.11 0.09 0.06 0.05 0.06 0.10 0.14 0.20
0.00 0.00 0.00 0.00 0.00 0.00 0.00 0.00 0.00 0.00 0.00 0.00 0.00 0.00 0.00 0.00 0.00 0.00 0.00 0.00 0.00 0.00 0.00 0.01 0.01 0.03 0.06 0.09 0.17 0.21 0.19 0.13 0.21 0.19 0.20 0.24 0.33 0.23 0.29 0.24 0.18 0.13 0.12 0.10 0.08 0.08 0.11 0.09 0.07 0.05 0.07 0.12
0.00 0.00 0.00 0.00 0.00 0.00 0.00 0.00 0.00 0.00 0.00 0.00 0.00 0.00 0.00 0.00 0.00 0.00 0.00 0.00 0.00 0.00 0.00 0.00 0.00 0.00 0.02 0.05 0.10 0.14 0.17 0.16 0.12 0.14 0.17 0.19 0.23 0.25 0.21 0.24 0.23 0.24 0.16 0.11 0.09 0.08 0.06 0.06 0.09 0.10 0.05 0.06
0.00 0.00 0.00 0.00 0.00 0.00 0.00 0.00 0.00 0.00 0.00 0.00 0.00 0.00 0.01 0.00 0.00 0.00 0.00 0.00 0.00 0.00 0.00 0.00 0.00 0.00 0.00 0.02 0.07 0.11 0.13 0.16 0.16 0.12 0.10 0.13 0.13 0.19 0.26 0.23 0.18 0.17 0.16 0.16 0.16 0.11 0.08 0.06 0.05 0.05 0.07 0.07
0.00 0.00 0.01 0.02 0.02 0.02 0.02 0.01 0.01 0.01 0.01 0.01 0.01 0.00 0.00 0.00 0.00 0.00 0.00 0.00 0.00 0.00 0.00 0.00 0.00 0.00 0.00 0.01 0.04 0.09 0.13 0.13 0.15 0.17 0.16 0.12 0.10 0.12 0.15 0.22 0.23 0.21 0.22 0.21 0.20 0.19 0.15 0.12 0.08 0.06 0.05 0.05
0.02 0.02 0.03 0.03 0.02 0.02 0.02 0.03 0.02 0.01 0.02 0.02 0.01 0.02 0.03 0.02 0.00 0.00 0.00 0.00 0.00 0.00 0.00 0.00 0.00 0.00 0.01 0.01 0.02 0.07 0.11 0.14 0.16 0.17 0.18 0.18 0.17 0.17 0.15 0.15 0.17 0.21 0.24 0.27 0.30 0.28 0.24 0.19 0.15 0.13 0.10 0.09
0.04 0.05 0.09 0.06 0.08 0.08 0.05 0.04 0.03 0.03 0.01 0.03 0.02 0.03 0.03 0.05 0.05 0.03 0.02 0.01 0.02 0.03 0.01 0.01 0.01 0.02 0.02 0.19 0.01 0.03 0.07 0.10 0.14 0.18 0.21 0.22 0.24 0.23 0.21 0.18 0.12 0.15 0.25 0.50 0.39 0.30 0.25 0.19 0.17 0.17 0.15 0.14
0.02 0.02 0.02 0.03 0.08 0.14 0.12 0.24 0.16 0.11 0.12 0.09 0.11 0.09 0.09 0.02 0.03 0.06 0.06 0.06 0.07 0.07 0.05 0.11 0.08 0.07 0.09 0.06 0.03 0.03 0.05 0.08 0.11 0.13 0.16 0.19 0.21 0.23 0.21 0.19 0.16 0.22 0.23 0.30 0.31 0.25 0.24 0.23 0.18 0.15 0.15 0.15
0.01 0.01 0.01 0.00 0.00 0.00 0.02 0.03 0.06 0.14 0.09 0.16 0.13 0.08 0.10 0.13 0.17 0.13 0.07 0.07 0.04 0.06 0.06 0.05 0.10 0.09 0.04 0.04 0.03 0.05 0.06 0.06 0.09 0.11 0.13 0.15 0.17 0.19 0.19 0.19 0.20 0.16 0.18 0.21 0.25 0.33 0.38 0.41 0.27 0.20 0.12 0.07
0.02 0.02 0.02 0.02 0.01 0.02 0.03 0.02 0.01 0.02 0.04 0.06 0.10 0.08 0.13 0.10 0.09 0.20 0.10 0.05 0.05 0.04 0.12 0.08 0.04 0.07 0.11 0.07 0.05 0.06 0.06 0.06 0.06 0.06 0.10 0.12 0.14 0.16 0.19 0.19 0.14 0.13 0.14 0.15 0.19 0.35 0.32 0.40 0.38 0.32 0.26 0.12
0.01 0.02 0.02 0.02 0.03 0.04 0.04 0.04 0.03 0.03 0.01 0.00 0.00 0.01 0.02 0.03 0.03 0.03 0.04 0.06 0.11 0.03 0.04 0.05 0.07 0.07 0.03 0.04 0.06 0.05 0.05 0.05 0.06 0.08 0.07 0.08 0.11 0.15 0.15 0.17 0.18 0.16 0.11 0.12 0.16 0.24 0.35 0.37 0.28 0.21 0.13 0.11
0.01 0.01 0.02 0.02 0.02 0.01 0.01 0.01 0.01 0.00 0.00 0.00 0.01 0.01 0.00 0.02 0.14 0.04 0.04 0.02 0.07 0.07 0.09 0.08 0.09 0.09 0.07 0.07 0.07 0.06 0.06 0.06 0.06 0.06 0.22 0.24 0.13 0.13 0.14 0.15 0.19 0.18 0.15 0.10 0.12 0.19 0.23 0.22 0.25 0.22 0.15 0.12

ECMWFFLT2_prec_precacc_132.txt.gz
Total_Precipitation_Accumulation
0.49 0.43 0.33 0.26 0.25 0.17 0.14 0.16 0.25 0.21 0.21 0.31 0.24 0.17 0.14 0.14 0.12 0.22 0.23 0.45 0.47 0.48 0.60 0.82 0.58 0.62 0.65 0.74 0.91 1.08 1.06 1.04 1.08 0.86 0.80 0.66 0.62 0.61 0.67 0.62 0.53 0.64 0.47 0.59 0.47 0.37 0.67 0.60 0.36 0.29 0.31 0.26
0.34 0.30 0.21 0.18 0.17 0.15 0.10 0.10 0.11 0.10 0.10 0.10 0.14 0.14 0.14 0.19 0.11 0.10 0.20 0.19 0.24 0.36 0.44 0.61 0.60 0.69 0.66 0.76 0.72 0.76 0.79 0.93 0.90 0.92 0.85 0.74 0.65 0.64 0.62 0.67 0.73 0.75 0.59 0.45 0.39 0.49 0.45 0.78 0.49 0.37 0.30 0.29
0.31 0.26 0.21 0.15 0.16 0.15 0.16 0.14 0.11 0.06 0.13 0.11 0.05 0.06 0.05 0.07 0.19 0.14 0.05 0.12 0.18 0.19 0.34 0.31 0.27 0.45 0.78 1.11 0.71 0.72 0.67 0.58 0.73 0.79 0.85 0.79 0.76 0.77 0.69 0.66 0.66 0.73 0.72 0.63 0.53 0.57 0.56 0.65 0.64 0.37 0.29 0.32
0.36 0.22 0.16 0.16 0.12 0.12 0.13 0.11 0.07 0.06 0.04 0.03 0.02 0.01 0.02 0.06 0.09 0.16 0.10 0.11 0.10 0.31 0.12 0.26 0.16 0.26 0.40 0.44 0.62 0.72 0.77 0.62 0.63 0.58 0.63 0.71 0.72 0.73 0.77 0.74 0.81 0.92 0.88 0.93 0.69 0.55 0.53 0.63 0.82 0.50 0.31 0.28
0.24 0.29 0.20 0.13 0.10 0.10 0.12 0.13 0.11 0.08 0.13 0.04 0.02 0.02 0.01 0.01 0.03 0.03 0.04 0.06 0.06 0.08 0.05 0.05 0.15 0.16 0.31 0.30 0.32 0.34 0.46 0.64 0.66 0.64 0.55 0.54 0.56 0.61 0.69 0.79 0.90 0.87 0.97 0.96 0.77 0.57 0.58 0.60 0.63 0.54 0.37 0.33
0.10 0.11 0.12 0.10 0.08 0.08 0.06 0.09 0.14 0.14 0.17 0.12 0.11 0.15 0.04 0.01 0.01 0.02 0.03 0.03 0.03 0.08 0.06 0.06 0.04 0.10 0.08 0.14 0.23 0.26 0.46 0.43 0.47 0.52 0.55 0.58 0.59 0.50 0.57 0.68 0.80 0.95 0.91 1.01 0.90 1.01 0.75 0.60 0.63 0.68 0.45 0.39
0.11 0.05 0.07 0.05 0.09 0.06 0.05 0.07 0.07 0.18 0.15 0.18 0.15 0.12 0.11 0.07 0.02 0.02 0.02 0.04 0.03 0.07 0.03 0.01 0.05 0.07 0.07 0.10 0.15 0.22 0.16 0.46 0.39 0.48 0.37 0.47 0.47 0.46 0.51 0.63 0.66 0.98 0.96 0.97 0.70 0.78 0.80 0.76 0.64 0.58 0.51 0.45
0.43 0.17 0.09 0.03 0.03 0.05 0.05 0.05 0.05 0.07 0.08 0.18 0.08 0.19 0.12 0.14 0.12 0.09 0.06 0.03 0.05 0.10 0.06 0.09 0.03 0.07 0.11 0.08 0.06 0.06 0.13 0.18 0.18 0.28 0.37 0.46 0.41 0.38 0.39 0.55 0.64 0.70 1.11 0.93 0.83 0.69 0.75 0.78 0.69 0.59 0.54 0.48
0.33 0.50 0.18 0.14 0.06 0.03 0.02 0.04 0.04 0.10 0.05 0.06 0.06 0.07 0.11 0.09 0.13 0.08 0.08 0.05 0.03 0.02 0.03 0.08 0.06 0.09 0.06 0.07 0.07 0.06 0.16 0.14 0.14 0.19 0.36 0.28 0.38 0.43 0.48 0.43 0.50 0.65 0.93 0.92 0.87 0.80 0.73 0.77 0.73 0.63 0.58 0.53
0.43 0.41 0.71 0.28 0.19 0.12 0.07 0.05 0.17 0.05 0.05 0.04 0.04 0.03 0.03 0.18 0.06 0.09 0.06 0.07 0.03 0.01 0.02 0.03 0.06 0.03 0.09 0.10 0.09 0.24 0.11 0.10 0.13 0.21 0.24 0.34 0.35 0.40 0.37 0.45 0.46 0.50 0.64 0.83 0.92 0.90 0.78 0.76 0.71 0.69 0.60 0.53
0.50 0.48 0.46 0.49 0.33 0.31 0.34 0.13 0.12 0.05 0.05 0.05 0.04 0.19 0.14 0.05 0.14 0.26 0.09 0.11 0.16 0.11 0.09 0.04 0.05 0.05 0.08 0.06 0.04 0.06 0.12 0.06 0.16 0.10 0.11 0.11 0.14 0.27 0.34 0.37 0.37 0.50 0.55 0.60 0.68 0.82 0.95 0.88 0.77 0.70 0.65 0.55
0.52 0.45 0.40 0.38 0.33 0.28 0.36 0.31 0.28 0.18 0.12 0.07 0.06 0.06 0.09 0.07 0.06 0.09 0.06 0.18 0.10 0.11 0.26 0.11 0.20 0.12 0.05 0.01 0.06 0.04 0.08 0.06 0.03 0.12 0.11 0.09 0.06 0.11 0.20 0.30 0.35 0.42 0.46 0.59 0.58 0.62 0.76 0.87 0.80 0.74 0.71 0.62
0.34 0.33 0.36 0.36 0.28 0.22 0.18 0.16 0.14 0.14 0.14 0.10 0.08 0.04 0.06 0.07 0.09 0.15 0.17 0.12 0.06 0.20 0.14 0.05 0.05 0.11 0.09 0.04 0.11 0.19 0.03 0.02 0.01 0.04 0.07 0.04 0.05 0.09 0.13 0.17 0.27 0.35 0.38 0.47 0.60 0.58 0.59 0.70 0.76 0.74 0.75 0.67
0.19 0.19 0.33 0.25 0.27 0.26 0.21 0.23 0.11 0.08 0.09 0.04 0.03 0.06 0.20 0.09 0.17 0.08 0.24 0.23 0.18 0.18 0.31 0.11 0.16 0.21 0.17 0.16 0.10 0.05 0.04 0.04 0.03 0.05 0.05 0.05 0.03 0.06 0.06 0.07 0.11 0.23 0.33 0.35 0.44 0.56 0.59 0.55 0.61 0.70 0.70 0.72
0.05 0.06 0.23 0.14 0.09 0.08 0.07 0.15 0.10 0.09 0.06 0.04 0.03 0.02 0.02 0.08 0.15 0.21 0.15 0.28 0.14 0.20 0.09 0.13 0.08 0.09 0.14 0.21 0.06 0.29 0.05 0.11 0.08 0.05 0.04 0.04 0.04 0.10 0.03 0.03 0.09 0.09 0.12 0.23 0.32 0.42 0.49 0.57 0.54 0.52 0.68 0.68
0.03 0.03 0.09 0.06 0.02 0.05 0.12 0.09 0.04 0.05 0.03 0.02 0.01 0.01 0.00 0.00 0.04 0.05 0.19 0.29 0.18 0.23 0.24 0.26 0.19 0.15 0.13 0.10 0.14 0.11 0.08 0.06 0.03 0.08 0.20 0.17 0.06 0.08 0.04 0.03 0.02 0.07 0.07 0.08 0.15 0.28 0.35 0.44 0.53 0.53 0.55 0.57
0.08 0.25 0.04 0.01 0.01 0.01 0.01 0.01 0.03 0.05 0.02 0.01 0.00 0.00 0.00 0.00 0.00 0.00 0.01 0.03 0.18 0.20 0.22 0.22 0.27 0.25 0.16 0.14 0.20 0.22 0.15 0.22 0.24 0.18 0.06 0.06 0.07 0.13 0.09 0.14 0.06 0.09 0.07 0.06 0.08 0.08 0.17 0.34 0.38 0.45 0.53 0.49
0.18 0.06 0.09 0.34 0.04 0.01 0.01 0.04 0.04 0.06 0.01 0.00 0.00 0.00 0.00 0.00 0.00 0.00 0.00 0.00 0.02 0.08 0.15 0.27 0.22 0.27 0.22 0.18 0.24 0.22 0.12 0.20 0.21 0.24 0.18 0.22 0.11 0.12 0.16 0.12 0.09 0.07 0.07 0.06 0.06 0.08 0.09 0.09 0.27 0.30 0.35 0.47
0.02 0.05 0.22 0.31 0.17 0.37 0.25 0.05 0.07 0.00 0.01 0.05 0.00 0.03 0.00 0.00 0.00 0.00 0.00 0.00 0.00 0.01 0.03 0.08 0.17 0.18 0.24 0.22 0.17 0.17 0.18 0.19 0.16 0.33 0.24 0.37 0.16 0.15 0.13 0.10 0.09 0.12 0.14 0.13 0.07 0.06 0.06 0.07 0.12 0.19 0.28 0.29
0.00 0.05 0.14 0.30 0.27 0.86 0.51 0.39 0.56 0.47 0.13 0.21 0.15 0.27 0.05 0.03 0.17 0.00 0.00 0.00 0.00 0.00 0.01 0.01 0.06 0.08 0.14 0.25 0.18 0.22 0.22 0.25 0.20 0.17 0.28 0.25 0.22 0.22 0.18 0.17 0.14 0.12 0.10 0.09 0.11 0.09 0.06 0.05 0.06 0.10 0.14 0.20
0.01 0.01 0.04 0.06 0.29 0.20 0.48 0.31 0.48 0.55 0.61 0.35 0.13 0.35 0.21 0.08 0.04 0.03 0.01 0.00 0.00 0.00 0.00 0.01 0.01 0.03 0.06 0.09 0.17 0.21 0.19 0.13 0.21 0.19 0.20 0.24 0.33 0.23 0.29 0.24 0.18 0.13 0.12 0.10 0.08 0.08 0.11 0.09 0.07 0.05 0.07 0.12
0.02 0.02 0.01 0.06 0.23 0.12 0.12 0.13 0.14 0.31 0.28 0.24 0.08 0.27 0.19 0.10 0.09 0.05 0.03 0.00 0.00 0.00 0.00 0.00 0.00 0.00 0.02 0.05 0.10 0.14 0.17 0.16 0.12 0.14 0.17 0.19 0.23 0.25 0.21 0.24 0.23 0.24 0.16 0.11 0.09 0.08 0.06 0.06 0.09 0.10 0.05 0.06
0.04 0.03 0.07 0.06 0.10 0.10 0.11 0.13 0.14 0.28 0.18 0.08 0.08 0.15 0.13 0.26 0.21 0.08 0.01 0.02 0.00 0.00 0.00 0.00 0.00 0.00 0.00 0.02 0.07 0.11 0.13 0.16 0.16 0.12 0.10 0.13 0.13 0.19 0.26 0.23 0.18 0.17 0.16 0.16 0.16 0.11 0.08 0.06 0.05 0.05 0.07 0.07
0.04 0.02 0.04 0.08 0.12 0.17 0.16 0.12 0.12 0.11 0.08 0.09 0.06 0.14 0.37 0.27 0.15 0.09 0.10 0.07 0.04 0.03 0.03 0.00 0.00 0.00 0.00 0.01 0.04 0.09 0.13 0.13 0.15 0.17 0.16 0.12 0.10 0.12 0.15 0.22 0.23 0.21 0.22 0.21 0.20 0.19 0.15 0.12 0.08 0.06 0.05 0.05
0.12 0.07 0.13 0.19 0.13 0.10 0.08 0.09 0.12 0.12 0.08 0.12 0.30 0.38 0.27 0.17 0.19 0.17 0.26 0.08 0.10 0.17 0.10 0.02 0.00 0.00 0.01 0.01 0.02 0.07 0.11 0.14 0.16 0.17 0.18 0.18 0.17 0.17 0.15 0.15 0.17 0.21 0.24 0.27 0.30 0.28 0.24 0.19 0.15 0.13 0.10 0.09
0.14 0.14 0.17 0.16 0.13 0.19 0.12 0.11 0.12 0.12 0.09 0.09 0.39 0.19 0.20 0.23 0.27 0.26 0.28 0.12 0.16 0.07 0.04 0.03 0.01 0.02 0.02 0.19 0.01 0.03 0.07 0.10 0.14 0.18 0.21 0.22 0.24 0.23 0.21 0.18 0.12 0.15 0.25 0.50 0.39 0.30 0.25 0.19 0.17 0.17 0.15 0.14
0.12 0.11 0.11 0.13 0.14 0.16 0.14 0.25 0.31 0.45 0.38 0.54 0.30 0.42 0.36 0.30 0.30 0.26 0.15 0.16 0.20 0.17 0.12 0.18 0.09 0.07 0.09 0.06 0.03 0.03 0.05 0.08 0.11 0.13 0.16 0.19 0.21 0.23 0.21 0.19 0.16 0.22 0.23 0.30 0.31 0.25 0.24 0.23 0.18 0.15 0.15 0.15
0.10 0.10 0.08 0.08 0.10 0.09 0.09 0.08 0.19 0.42 0.18 0.21 0.16 0.12 0.13 0.27 0.27 0.24 0.19 0.33 0.20 0.38 0.20 0.17 0.14 0.21 0.09 0.06 0.06 0.05 0.06 0.06 0.09 0.11 0.13 0.15 0.17 0.19 0.19 0.19 0.20 0.16 0.18 0.21 0.25 0.33 0.38 0.41 0.27 0.20 0.12 0.07
0.10 0.13 0.18 0.20 0.23 0.23 0.19 0.13 0.08 0.05 0.07 0.09 0.13 0.13 0.15 0.10 0.11 0.23 0.20 0.27 0.16 0.13 0.21 0.21 0.11 0.13 0.14 0.08 0.06 0.07 0.07 0.06 0.06 0.06 0.10 0.12 0.14 0.16 0.19 0.19 0.14 0.13 0.14 0.15 0.19 0.35 0.32 0.40 0.38 0.32 0.26 0.12
0.07 0.09 0.11 0.15 0.18 0.20 0.19 0.19 0.14 0.14 0.07 0.03 0.02 0.02 0.03 0.16 0.20 0.10 0.04 0.07 0.24 0.14 0.22 0.17 0.25 0.15 0.11 0.09 0.09 0.07 0.06 0.05 0.06 0.08 0.07 0.08 0.11 0.15 0.15 0.17 0.18 0.16 0.11 0.12 0.16 0.24 0.35 0.37 0.28 0.21 0.13 0.11
0.05 0.08 0.11 0.14 0.11 0.07 0.09 0.11 0.11 0.12 0.12 0.12 0.18 0.47 0.09 0.08 0.20 0.11 0.10 0.21 0.22 0.25 0.12 0.24 0.17 0.20 0.15 0.15 0.22 0.24 0.14 0.07 0.06 0.06 0.22 0.24 0.13 0.13 0.14 0.15 0.19 0.18 0.15 0.10 0.12 0.19 0.23 0.22 0.25 0.22 0.15 0.12

ECMWFFLT2_prec_precacc_135.txt.gz
Total_Precipitation_Accumulation
0.56 0.58 0.49 0.53 0.47 0.28 0.26 0.30 0.36 0.31 0.30 0.37 0.26 0.17 0.14 0.14 0.12 0.22 0.23 0.45 0.47 0.49 0.60 0.82 0.58 0.62 0.66 0.74 0.91 1.09 1.07 1.04 1.08 0.86 0.80 0.66 0.62 0.61 0.67 0.62 0.53 0.64 0.47 0.59 0.47 0.37 0.67 0.60 0.36 0.29 0.31 0.26
0.41 0.38 0.29 0.25 0.21 0.24 0.17 0.25 0.25 0.21 0.20 0.17 0.18 0.16 0.15 0.19 0.11 0.10 0.20 0.19 0.24 0.36 0.44 0.61 0.60 0.69 0.66 0.76 0.72 0.76 0.79 0.93 0.90 0.92 0.85 0.74 0.65 0.64 0.62 0.67 0.73 0.75 0.59 0.45 0.39 0.49 0.45 0.78 0.49 0.37 0.30 0.29
0.87 0.97 0.38 0.21 0.20 0.18 0.17 0.16 0.13 0.10 0.18 0.16 0.09 0.10 0.08 0.09 0.19 0.14 0.05 0.12 0.18 0.19 0.34 0.31 0.27 0.45 0.78 1.11 0.71 0.72 0.67 0.58 0.73 0.79 0.85 0.79 0.76 0.77 0.69 0.66 0.66 0.73 0.72 0.63 0.53 0.57 0.56 0.65 0.64 0.37 0.29 0.32
0.97 0.52 0.20 0.24 0.13 0.12 0.13 0.11 0.08 0.06 0.06 0.04 0.04 0.04 0.04 0.06 0.09 0.16 0.10 0.11 0.10 0.31 0.13 0.27 0.17 0.27 0.41 0.44 0.62 0.72 0.77 0.62 0.63 0.58 0.63 0.71 0.72 0.73 0.77 0.74 0.81 0.92 0.88 0.93 0.69 0.55 0.53 0.63 0.82 0.50 0.31 0.28
0.43 0.42 0.46 0.21 0.11 0.10 0.12 0.13 0.11 0.08 0.13 0.04 0.03 0.02 0.01 0.01 0.03 0.03 0.04 0.06 0.06 0.08 0.05 0.06 0.16 0.16 0.31 0.31 0.33 0.34 0.46 0.64 0.66 0.64 0.55 0.54 0.56 0.61 0.69 0.79 0.90 0.87 0.97 0.96 0.77 0.57 0.58 0.60 0.63 0.54 0.37 0.33
0.27 0.27 0.29 0.36 0.17 0.13 0.09 0.09 0.14 0.14 0.22 0.12 0.12 0.15 0.04 0.01 0.01 0.02 0.03 0.03 0.03 0.08 0.06 0.06 0.04 0.10 0.08 0.15 0.23 0.27 0.46 0.44 0.47 0.52 0.55 0.58 0.59 0.50 0.57 0.68 0.80 0.95 0.91 1.01 0.90 1.01 0.75 0.60 0.63 0.68 0.45 0.39
0.19 0.19 0.21 0.29 0.25 0.14 0.06 0.07 0.07 0.19 0.18 0.19 0.15 0.12 0.11 0.07 0.03 0.02 0.02 0.04 0.03 0.07 0.03 0.02 0.05 0.07 0.08 0.10 0.15 0.22 0.16 0.46 0.39 0.48 0.37 0.47 0.47 0.46 0.51 0.63 0.67 0.98 0.96 0.97 0.70 0.78 0.80 0.76 0.64 0.58 0.51 0.45
0.52 0.26 0.20 0.15 0.18 0.12 0.11 0.06 0.05 0.07 0.13 0.18 0.08 0.19 0.12 0.14 0.12 0.09 0.06 0.03 0.05 0.10 0.06 0.09 0.03 0.07 0.11 0.08 0.06 0.06 0.13 0.18 0.18 0.28 0.37 0.46 0.41 0.38 0.39 0.55 0.64 0.70 1.11 0.93 0.83 0.69 0.75 0.78 0.69 0.59 0.54 0.48
0.61 0.89 0.46 0.30 0.22 0.17 0.13 0.07 0.05 0.11 0.05 0.06 0.07 0.08 0.11 0.09 0.13 0.08 0.08 0.06 0.03 0.02 0.04 0.08 0.06 0.09 0.06 0.07 0.08 0.06 0.16 0.14 0.14 0.19 0.36 0.28 0.38 0.43 0.48 0.43 0.50 0.65 0.93 0.92 0.87 0.80 0.73 0.77 0.73 0.63 0.58 0.53
0.58 0.53 1.06 0.86 0.58 0.35 0.22 0.13 0.24 0.09 0.07 0.05 0.05 0.04 0.04 0.18 0.06 0.09 0.06 0.07 0.03 0.01 0.02 0.03 0.06 0.03 0.10 0.10 0.10 0.25 0.11 0.11 0.14 0.21 0.24 0.34 0.35 0.40 0.37 0.46 0.47 0.50 0.64 0.83 0.92 0.90 0.78 0.76 0.71 0.69 0.60 0.53
0.59 0.62 0.79 1.05 0.62 0.66 0.78 0.46 0.30 0.15 0.15 0.11 0.08 0.20 0.15 0.06 0.15 0.26 0.09 0.11 0.16 0.11 0.09 0.04 0.05 0.06 0.08 0.06 0.04 0.07 0.12 0.06 0.17 0.10 0.11 0.11 0.14 0.27 0.34 0.37 0.37 0.50 0.55 0.60 0.69 0.82 0.95 0.88 0.77 0.70 0.65 0.55
0.75 0.57 0.52 0.67 0.60 0.61 0.58 0.56 0.49 0.37 0.30 0.27 0.20 0.16 0.15 0.10 0.08 0.09 0.06 0.18 0.10 0.11 0.26 0.11 0.20 0.12 0.05 0.01 0.06 0.04 0.08 0.06 0.03 0.12 0.11 0.09 0.06 0.11 0.20 0.30 0.35 0.42 0.46 0.59 0.58 0.62 0.76 0.87 0.80 0.74 0.71 0.62
0.44 0.59 0.57 0.71 0.72 0.54 0.48 0.43 0.43 0.41 0.45 0.37 0.30 0.20 0.15 0.13 0.12 0.17 0.17 0.12 0.06 0.20 0.14 0.05 0.05 0.11 0.09 0.04 0.11 0.19 0.03 0.02 0.01 0.04 0.07 0.04 0.05 0.09 0.13 0.17 0.27 0.35 0.38 0.47 0.60 0.58 0.59 0.70 0.76 0.74 0.75 0.67
0.31 0.46 0.42 0.38 0.48 0.56 0.50 0.54 0.42 0.49 0.45 0.36 0.27 0.22 0.32 0.18 0.23 0.11 0.24 0.23 0.18 0.18 0.31 0.11 0.16 0.21 0.17 0.16 0.10 0.05 0.04 0.04 0.03 0.05 0.05 0.05 0.03 0.06 0.06 0.07 0.11 0.23 0.33 0.35 0.44 0.56 0.59 0.55 0.61 0.70 0.70 0.72
0.05 0.09 0.37 0.35 0.48 0.22 0.27 0.35 0.33 0.31 0.30 0.27 0.23 0.19 0.17 0.20 0.23 0.26 0.18 0.28 0.14 0.20 0.09 0.13 0.08 0.09 0.14 0.21 0.06 0.29 0.05 0.11 0.08 0.05 0.04 0.04 0.04 0.10 0.03 0.03 0.09 0.09 0.12 0.23 0.32 0.42 0.49 0.57 0.54 0.52 0.68 0.68
0.03 0.03 0.13 0.25 0.19 0.17 0.30 0.19 0.16 0.19 0.13 0.09 0.06 0.05 0.06 0.06 0.09 0.08 0.21 0.30 0.18 0.23 0.24 0.26 0.19 0.15 0.13 0.10 0.14 0.11 0.08 0.06 0.03 0.08 0.20 0.17 0.06 0.08 0.04 0.03 0.02 0.07 0.07 0.08 0.15 0.28 0.35 0.44 0.53 0.53 0.55 0.57
0.08 0.25 0.08 0.19 0.12 0.13 0.38 0.32 0.32 0.20 0.13 0.09 0.05 0.04 0.03 0.03 0.03 0.02 0.02 0.03 0.18 0.20 0.22 0.22 0.27 0.25 0.16 0.14 0.20 0.22 0.15 0.22 0.24 0.18 0.06 0.06 0.07 0.13 0.09 0.14 0.06 0.09 0.07 0.06 0.08 0.08 0.17 0.34 0.38 0.45 0.53 0.49
0.18 0.06 0.11 0.65 0.21 0.21 0.16 0.19 0.13 0.15 0.15 0.07 0.03 0.02 0.01 0.01 0.01 0.01 0.01 0.01 0.02 0.08 0.15 0.27 0.22 0.27 0.22 0.18 0.24 0.22 0.12 0.20 0.21 0.24 0.18 0.22 0.11 0.12 0.16 0.12 0.09 0.07 0.07 0.06 0.06 0.08 0.09 0.09 0.27 0.30 0.35 0.47
0.02 0.05 0.23 0.33 0.28 0.47 0.33 0.15 0.16 0.17 0.07 0.09 0.11 0.07 0.02 0.01 0.00 0.00 0.00 0.00 0.00 0.01 0.03 0.08 0.17 0.18 0.24 0.22 0.17 0.17 0.18 0.19 0.16 0.33 0.24 0.37 0.16 0.15 0.13 0.10 0.09 0.12 0.14 0.13 0.07 0.06 0.06 0.07 0.12 0.19 0.28 0.29
0.00 0.05 0.14 0.32 0.30 0.94 0.61 0.49 0.68 0.75 0.35 0.41 0.33 0.42 0.08 0.05 0.28 0.02 0.04 0.00 0.00 0.00 0.01 0.01 0.06 0.08 0.14 0.25 0.18 0.22 0.22 0.25 0.20 0.17 0.28 0.25 0.22 0.22 0.18 0.17 0.14 0.12 0.10 0.09 0.11 0.09 0.06 0.05 0.06 0.10 0.14 0.20
0.10 0.05 0.04 0.06 0.29 0.27 0.56 0.42 0.71 0.75 0.95 0.58 0.33 0.69 0.36 0.22 0.14 0.17 0.07 0.11 0.09 0.05 0.02 0.01 0.01 0.03 0.06 0.09 0.17 0.21 0.19 0.13 0.21 0.19 0.20 0.24 0.33 0.23 0.29 0.24 0.18 0.13 0.12 0.10 0.08 0.08 0.11 0.09 0.07 0.05 0.07 0.12
0.13 0.15 0.10 0.12 0.23 0.13 0.16 0.20 0.25 0.45 0.47 0.35 0.22 0.44 0.43 0.38 0.31 0.32 0.25 0.07 0.07 0.07 0.04 0.02 0.01 0.01 0.02 0.05 0.10 0.14 0.17 0.16 0.12 0.14 0.17 0.19 0.23 0.25 0.21 0.24 0.23 0.24 0.16 0.11 0.09 0.08 0.06 0.06 0.09 0.10 0.05 0.06
0.16 0.14 0.19 0.20 0.24 0.21 0.21 0.19 0.17 0.34 0.28 0.21 0.19 0.27 0.26 0.43 0.38 0.30 0.23 0.36 0.21 0.15 0.10 0.06 0.04 0.01 0.00 0.02 0.07 0.11 0.13 0.16 0.16 0.12 0.10 0.13 0.13 0.19 0.26 0.23 0.18 0.17 0.16 0.16 0.16 0.11 0.08 0.06 0.05 0.05 0.07 0.07
0.14 0.20 0.20 0.21 0.24 0.32 0.26 0.18 0.16 0.12 0.10 0.12 0.13 0.24 0.57 0.69 0.31 0.25 0.33 0.23 0.21 0.26 0.19 0.14 0.10 0.05 0.04 0.01 0.04 0.09 0.13 0.13 0.15 0.17 0.16 0.12 0.10 0.12 0.15 0.22 0.23 0.21 0.22 0.21 0.20 0.19 0.15 0.12 0.08 0.06 0.05 0.05
0.17 0.17 0.25 0.34 0.26 0.24 0.22 0.24 0.26 0.20 0.12 0.13 0.31 0.41 0.32 0.22 0.25 0.24 0.38 0.20 0.30 0.34 0.33 0.18 0.13 0.12 0.07 0.02 0.02 0.07 0.11 0.14 0.16 0.17 0.18 0.18 0.17 0.17 0.15 0.15 0.17 0.21 0.24 0.27 0.30 0.28 0.24 0.19 0.15 0.13 0.10 0.09
0.14 0.16 0.23 0.25 0.22 0.30 0.24 0.26 0.26 0.25 0.18 0.13 0.41 0.21 0.22 0.28 0.35 0.37 0.40 0.22 0.25 0.15 0.12 0.13 0.15 0.13 0.10 0.24 0.03 0.03 0.07 0.10 0.14 0.18 0.21 0.22 0.24 0.23 0.21 0.18 0.12 0.15 0.25 0.50 0.39 0.30 0.25 0.19 0.17 0.17 0.15 0.14
0.12 0.11 0.11 0.14 0.16 0.21 0.19 0.29 0.38 0.55 0.48 0.63 0.36 0.46 0.45 0.39 0.40 0.45 0.26 0.30 0.34 0.39 0.34 0.34 0.19 0.11 0.14 0.18 0.20 0.07 0.06 0.08 0.11 0.13 0.16 0.19 0.21 0.23 0.21 0.19 0.16 0.22 0.23 0.30 0.31 0.25 0.24 0.23 0.18 0.15 0.15 0.15
0.10 0.10 0.08 0.08 0.10 0.10 0.13 0.13 0.23 0.48 0.25 0.29 0.26 0.21 0.21 0.31 0.34 0.36 0.33 0.46 0.31 0.46 0.27 0.25 0.25 0.27 0.16 0.15 0.14 0.13 0.07 0.07 0.09 0.11 0.13 0.15 0.17 0.19 0.19 0.19 0.20 0.16 0.18 0.21 0.25 0.33 0.38 0.41 0.27 0.20 0.12 0.07
0.10 0.13 0.18 0.20 0.23 0.23 0.19 0.14 0.12 0.09 0.11 0.13 0.17 0.18 0.19 0.15 0.14 0.24 0.21 0.28 0.20 0.19 0.29 0.29 0.20 0.24 0.24 0.18 0.18 0.17 0.15 0.13 0.09 0.07 0.10 0.12 0.14 0.16 0.19 0.19 0.14 0.13 0.14 0.15 0.19 0.35 0.32 0.40 0.38 0.32 0.26 0.12
0.07 0.09 0.11 0.15 0.18 0.20 0.19 0.19 0.15 0.16 0.11 0.07 0.06 0.05 0.07 0.21 0.25 0.14 0.08 0.11 0.29 0.18 0.26 0.22 0.31 0.21 0.18 0.21 0.19 0.23 0.19 0.26 0.15 0.15 0.08 0.08 0.12 0.15 0.15 0.17 0.18 0.16 0.11 0.12 0.16 0.24 0.35 0.37 0.28 0.21 0.13 0.11
0.05 0.08 0.11 0.14 0.11 0.07 0.09 0.11 0.12 0.13 0.15 0.15 0.22 0.51 0.12 0.10 0.22 0.14 0.14 0.25 0.26 0.31 0.17 0.29 0.22 0.25 0.20 0.20 0.28 0.31 0.24 0.20 0.19 0.15 0.27 0.26 0.13 0.13 0.14 0.15 0.19 0.18 0.15 0.10 0.12 0.19 0.23 0.22 0.25 0.22 0.15 0.12

ECMWFFLT2_prec_precacc_138.txt.gz
Total_Precipitation_Accumulation
1.12 1.27 1.17 1.00 0.79 0.61 0.74 0.67 0.61 0.47 0.38 0.43 0.28 0.21 0.19 0.15 0.15 0.25 0.26 0.49 0.50 0.52 0.63 0.84 0.58 0.62 0.66 0.74 0.91 1.09 1.08 1.05 1.08 0.91 0.85 0.68 0.65 0.61 0.67 0.62 0.53 0.64 0.47 0.59 0.47 0.37 0.67 0.60 0.36 0.29 0.31 0.26
0.93 1.73 0.69 0.52 0.42 0.41 0.32 0.41 0.37 0.28 0.25 0.22 0.21 0.20 0.20 0.31 0.16 0.15 0.22 0.21 0.25 0.37 0.45 0.61 0.60 0.69 0.66 0.76 0.72 0.76 0.79 0.93 0.90 0.93 0.87 0.76 0.66 0.65 0.62 0.67 0.73 0.76 0.59 0.45 0.39 0.49 0.45 0.78 0.49 0.37 0.30 0.29
1.37 1.39 0.79 0.66 0.65 0.51 0.49 0.39 0.28 0.18 0.26 0.20 0.13 0.12 0.11 0.12 0.23 0.18 0.10 0.19 0.27 0.24 0.39 0.33 0.28 0.45 0.78 1.11 0.71 0.72 0.67 0.59 0.73 0.79 0.85 0.79 0.77 0.77 0.69 0.66 0.66 0.73 0.72 0.63 0.53 0.57 0.56 0.65 0.64 0.37 0.29 0.32
1.38 0.96 0.43 0.49 0.41 0.26 0.38 0.38 0.19 0.10 0.07 0.04 0.04 0.04 0.04 0.07 0.09 0.17 0.11 0.12 0.11 0.31 0.13 0.27 0.17 0.27 0.41 0.44 0.62 0.72 0.77 0.62 0.63 0.58 0.63 0.71 0.72 0.73 0.77 0.75 0.81 0.92 0.88 0.93 0.69 0.55 0.53 0.63 0.82 0.50 0.31 0.28
0.69 0.72 0.79 0.48 0.29 0.31 0.20 0.22 0.17 0.16 0.18 0.07 0.03 0.02 0.01 0.01 0.03 0.03 0.04 0.06 0.06 0.08 0.05 0.06 0.16 0.16 0.31 0.31 0.33 0.34 0.46 0.64 0.66 0.64 0.55 0.54 0.56 0.61 0.69 0.79 0.90 0.87 0.97 0.96 0.77 0.57 0.58 0.60 0.63 0.54 0.37 0.33
0.44 0.46 0.40 0.54 0.42 0.31 0.17 0.16 0.19 0.22 0.28 0.15 0.12 0.15 0.04 0.01 0.01 0.02 0.03 0.03 0.03 0.08 0.06 0.06 0.04 0.10 0.08 0.15 0.23 0.27 0.46 0.44 0.47 0.52 0.55 0.58 0.59 0.50 0.57 0.69 0.80 0.95 0.91 1.01 0.90 1.01 0.75 0.60 0.63 0.68 0.45 0.39
0.69 0.31 0.38 0.41 0.44 0.22 0.16 0.15 0.15 0.24 0.28 0.22 0.18 0.13 0.20 0.07 0.03 0.02 0.02 0.04 0.03 0.07 0.03 0.02 0.05 0.07 0.08 0.10 0.15 0.22 0.16 0.46 0.39 0.49 0.37 0.47 0.47 0.46 0.51 0.63 0.67 0.98 0.96 0.97 0.70 0.78 0.80 0.76 0.64 0.58 0.51 0.45
0.56 0.42 0.46 0.38 0.35 0.28 0.25 0.20 0.13 0.10 0.15 0.19 0.09 0.20 0.12 0.16 0.12 0.09 0.06 0.03 0.05 0.10 0.06 0.09 0.03 0.07 0.11 0.08 0.06 0.06 0.13 0.18 0.18 0.29 0.37 0.46 0.41 0.38 0.39 0.55 0.64 0.70 1.11 0.93 0.83 0.69 0.75 0.78 0.69 0.59 0.54 0.48
1.26 1.57 0.80 0.65 0.52 0.31 0.25 0.22 0.14 0.16 0.09 0.13 0.08 0.09 0.13 0.10 0.15 0.09 0.08 0.06 0.03 0.02 0.04 0.08 0.06 0.09 0.06 0.07 0.08 0.06 0.16 0.15 0.15 0.19 0.36 0.28 0.38 0.43 0.48 0.43 0.50 0.65 0.93 0.92 0.87 0.80 0.73 0.77 0.73 0.63 0.58 0.53
0.69 1.18 1.51 0.99 1.01 0.71 0.55 0.32 0.38 0.21 0.18 0.13 0.08 0.05 0.04 0.19 0.07 0.10 0.06 0.07 0.03 0.01 0.02 0.03 0.06 0.03 0.10 0.10 0.10 0.25 0.11 0.11 0.14 0.21 0.24 0.34 0.35 0.40 0.37 0.46 0.47 0.50 0.64 0.83 0.92 0.90 0.78 0.76 0.71 0.69 0.60 0.53
0.62 0.66 1.15 1.47 1.69 0.90 1.06 0.74 0.58 0.38 0.32 0.28 0.24 0.34 0.28 0.15 0.21 0.31 0.12 0.12 0.16 0.11 0.09 0.04 0.05 0.06 0.08 0.06 0.04 0.07 0.12 0.06 0.17 0.10 0.11 0.11 0.14 0.27 0.34 0.37 0.37 0.50 0.55 0.60 0.69 0.82 0.95 0.88 0.77 0.70 0.65 0.55
0.77 0.63 0.59 0.92 0.98 0.91 0.80 0.73 0.66 0.66 0.59 0.59 0.49 0.43 0.40 0.32 0.26 0.23 0.16 0.24 0.13 0.12 0.26 0.11 0.20 0.12 0.05 0.01 0.06 0.04 0.08 0.06 0.03 0.12 0.11 0.09 0.06 0.11 0.20 0.30 0.35 0.42 0.46 0.59 0.58 0.62 0.76 0.87 0.80 0.74 0.71 0.62
0.45 0.62 0.71 0.91 1.13 0.86 0.74 0.60 0.66 0.53 0.67 0.55 0.49 0.36 0.32 0.30 0.30 0.34 0.32 0.24 0.14 0.24 0.15 0.05 0.05 0.11 0.09 0.04 0.12 0.19 0.03 0.02 0.01 0.04 0.07 0.04 0.05 0.09 0.13 0.17 0.27 0.35 0.38 0.47 0.60 0.58 0.60 0.70 0.76 0.74 0.75 0.67
0.31 0.49 0.54 0.50 0.55 0.73 0.62 0.67 0.74 0.72 0.76 0.54 0.44 0.40 0.49 0.34 0.39 0.28 0.40 0.35 0.26 0.22 0.32 0.11 0.16 0.21 0.17 0.16 0.10 0.05 0.04 0.04 0.03 0.05 0.05 0.05 0.03 0.06 0.06 0.07 0.11 0.23 0.33 0.35 0.44 0.56 0.59 0.55 0.61 0.70 0.70 0.72
0.05 0.09 0.39 0.43 0.58 0.33 0.32 0.48 0.37 0.40 0.42 0.45 0.38 0.33 0.33 0.40 0.36 0.37 0.27 0.35 0.18 0.23 0.11 0.14 0.08 0.09 0.14 0.21 0.06 0.29 0.05 0.11 0.08 0.05 0.04 0.04 0.04 0.10 0.03 0.03 0.09 0.09 0.12 0.23 0.32 0.42 0.49 0.57 0.54 0.52 0.68 0.68
0.08 0.03 0.13 0.26 0.25 0.44 0.55 0.42 0.47 0.31 0.24 0.38 0.49 0.17 0.14 0.14 0.16 0.14 0.25 0.35 0.21 0.24 0.25 0.26 0.19 0.15 0.13 0.10 0.14 0.11 0.08 0.06 0.03 0.08 0.20 0.17 0.06 0.08 0.04 0.03 0.02 0.07 0.07 0.08 0.15 0.28 0.35 0.44 0.53 0.53 0.55 0.57
0.21 0.31 0.09 0.19 0.12 0.15 0.49 0.67 0.55 0.55 0.37 0.37 0.28 0.22 0.15 0.28 0.20 0.10 0.06 0.09 0.22 0.21 0.23 0.22 0.27 0.25 0.16 0.14 0.20 0.22 0.15 0.22 0.24 0.18 0.06 0.06 0.07 0.13 0.09 0.14 0.06 0.09 0.07 0.06 0.08 0.08 0.17 0.34 0.38 0.45 0.53 0.49
0.28 0.14 0.19 0.67 0.21 0.22 0.18 0.22 0.30 0.53 0.37 0.22 0.39 0.31 0.28 0.18 0.10 0.14 0.07 0.05 0.03 0.08 0.16 0.27 0.22 0.27 0.22 0.18 0.24 0.22 0.12 0.20 0.21 0.24 0.18 0.22 0.11 0.12 0.16 0.12 0.09 0.07 0.07 0.06 0.06 0.08 0.09 0.09 0.27 0.30 0.35 0.47
0.12 0.16 0.32 0.42 0.32 0.48 0.35 0.17 0.24 0.25 0.16 0.24 0.26 0.23 0.20 0.13 0.13 0.05 0.07 0.03 0.01 0.01 0.03 0.08 0.17 0.18 0.24 0.22 0.17 0.17 0.18 0.19 0.16 0.33 0.24 0.37 0.16 0.15 0.13 0.10 0.09 0.12 0.14 0.13 0.07 0.06 0.06 0.07 0.12 0.19 0.28 0.29
0.12 0.17 0.26 0.43 0.41 1.00 0.65 0.51 0.73 1.07 0.61 0.70 0.66 0.93 0.37 0.25 0.56 0.21 0.14 0.06 0.03 0.01 0.01 0.02 0.07 0.08 0.14 0.25 0.18 0.22 0.22 0.25 0.20 0.17 0.28 0.25 0.22 0.22 0.18 0.17 0.14 0.12 0.10 0.09 0.11 0.09 0.06 0.05 0.06 0.10 0.14 0.20
0.12 0.14 0.17 0.16 0.47 0.35 0.68 0.50 0.73 0.87 1.04 0.67 0.41 0.80 0.55 0.39 0.38 0.39 0.27 0.28 0.27 0.13 0.05 0.02 0.02 0.04 0.06 0.09 0.17 0.21 0.19 0.13 0.21 0.19 0.20 0.24 0.33 0.23 0.29 0.24 0.18 0.13 0.12 0.10 0.08 0.08 0.11 0.09 0.07 0.05 0.07 0.12
0.13 0.15 0.17 0.28 0.43 0.28 0.36 0.34 0.42 0.56 0.53 0.39 0.27 0.54 0.63 0.73 0.48 0.53 0.49 0.31 0.32 0.24 0.21 0.13 0.07 0.07 0.10 0.08 0.10 0.14 0.17 0.16 0.12 0.14 0.17 0.19 0.23 0.25 0.21 0.24 0.23 0.24 0.16 0.11 0.09 0.08 0.06 0.06 0.09 0.10 0.05 0.06
0.16 0.14 0.20 0.23 0.34 0.39 0.42 0.38 0.29 0.48 0.43 0.36 0.34 0.36 0.45 0.58 0.50 0.41 0.48 0.57 0.43 0.38 0.32 0.30 0.23 0.15 0.15 0.13 0.13 0.15 0.15 0.17 0.16 0.12 0.10 0.13 0.13 0.19 0.26 0.23 0.18 0.17 0.16 0.16 0.16 0.11 0.08 0.06 0.05 0.05 0.07 0.07
0.14 0.20 0.20 0.22 0.26 0.36 0.38 0.36 0.41 0.27 0.29 0.28 0.28 0.45 0.69 0.87 0.42 0.39 0.47 0.38 0.36 0.43 0.41 0.35 0.34 0.25 0.33 0.16 0.22 0.21 0.27 0.24 0.19 0.22 0.18 0.13 0.11 0.12 0.15 0.22 0.23 0.21 0.22 0.21 0.20 0.19 0.15 0.12 0.08 0.06 0.05 0.05
0.17 0.17 0.26 0.35 0.28 0.26 0.26 0.28 0.33 0.31 0.27 0.34 0.51 0.54 0.46 0.35 0.36 0.32 0.44 0.28 0.40 0.46 0.47 0.34 0.35 0.32 0.28 0.19 0.19 0.18 0.21 0.20 0.20 0.20 0.21 0.20 0.19 0.18 0.15 0.15 0.17 0.21 0.24 0.27 0.30 0.28 0.24 0.19 0.15 0.13 0.10 0.09
0.14 0.16 0.23 0.25 0.28 0.38 0.30 0.29 0.28 0.30 0.30 0.30 0.59 0.38 0.36 0.39 0.49 0.51 0.53 0.35 0.32 0.24 0.22 0.22 0.25 0.25 0.24 0.39 0.18 0.18 0.20 0.20 0.22 0.28 0.27 0.26 0.25 0.23 0.21 0.18 0.12 0.15 0.25 0.50 0.39 0.30 0.25 0.19 0.17 0.17 0.15 0.14
0.12 0.11 0.11 0.14 0.16 0.22 0.21 0.37 0.47 0.64 0.54 0.70 0.46 0.62 0.63 0.52 0.52 0.54 0.35 0.40 0.43 0.49 0.44 0.43 0.28 0.20 0.23 0.28 0.31 0.19 0.19 0.21 0.20 0.26 0.21 0.22 0.22 0.23 0.21 0.19 0.16 0.22 0.23 0.30 0.31 0.25 0.24 0.23 0.18 0.15 0.15 0.15
0.10 0.10 0.08 0.08 0.10 0.10 0.13 0.13 0.25 0.55 0.31 0.35 0.32 0.27 0.28 0.40 0.45 0.47 0.45 0.59 0.44 0.58 0.38 0.36 0.34 0.35 0.26 0.25 0.25 0.25 0.21 0.21 0.22 0.23 0.22 0.21 0.20 0.19 0.19 0.19 0.20 0.16 0.18 0.21 0.25 0.33 0.38 0.41 0.27 0.20 0.12 0.07
0.10 0.13 0.18 0.20 0.23 0.23 0.19 0.14 0.12 0.10 0.16 0.21 0.24 0.27 0.27 0.22 0.21 0.31 0.26 0.36 0.29 0.29 0.38 0.37 0.28 0.32 0.34 0.26 0.26 0.26 0.26 0.26 0.23 0.19 0.24 0.22 0.21 0.20 0.20 0.19 0.14 0.13 0.14 0.15 0.19 0.35 0.32 0.40 0.38 0.32 0.26 0.12
0.07 0.09 0.11 0.15 0.18 0.20 0.19 0.19 0.15 0.16 0.11 0.08 0.09 0.09 0.10 0.25 0.30 0.21 0.16 0.21 0.42 0.33 0.41 0.37 0.46 0.35 0.32 0.34 0.29 0.32 0.27 0.31 0.21 0.24 0.19 0.17 0.18 0.20 0.20 0.19 0.18 0.16 0.11 0.12 0.16 0.24 0.35 0.37 0.28 0.21 0.13 0.11
0.05 0.08 0.11 0.14 0.11 0.07 0.09 0.11 0.12 0.13 0.15 0.15 0.22 0.52 0.13 0.12 0.24 0.16 0.17 0.28 0.32 0.39 0.27 0.39 0.34 0.37 0.32 0.32 0.39 0.42 0.34 0.30 0.27 0.21 0.32 0.32 0.21 0.20 0.18 0.18 0.21 0.19 0.15 0.10 0.12 0.19 0.23 0.22 0.25 0.22 0.15 0.12

ECMWFFLT2_prec_precacc_141.txt.gz
Total_Precipitation_Accumulation
1.12 1.28 1.29 1.15 1.31 1.64 1.06 0.82 0.88 0.62 0.46 0.49 0.44 0.30 0.32 0.29 0.37 0.36 0.40 0.63 0.60 0.66 0.78 1.02 0.77 0.73 0.76 0.80 0.97 1.10 1.08 1.05 1.08 0.91 0.85 0.68 0.67 0.63 0.67 0.62 0.53 0.64 0.47 0.59 0.47 0.37 0.67 0.60 0.36 0.29 0.31 0.26
0.93 1.92 1.07 1.30 1.28 1.45 2.40 1.70 0.89 0.76 0.56 0.54 0.48 0.40 0.35 0.43 0.33 0.19 0.29 0.29 0.33 0.47 0.57 0.74 0.72 0.82 0.81 0.90 0.82 0.81 0.81 0.93 0.90 0.94 0.87 0.76 0.66 0.66 0.63 0.67 0.73 0.76 0.59 0.45 0.39 0.49 0.45 0.78 0.50 0.37 0.31 0.29
1.41 1.41 0.81 0.71 1.04 1.23 0.87 1.01 0.88 0.65 0.57 0.40 0.36 0.35 0.24 0.22 0.30 0.22 0.12 0.22 0.31 0.29 0.46 0.43 0.46 0.64 0.90 1.24 0.81 0.79 0.72 0.62 0.74 0.80 0.86 0.80 0.77 0.77 0.71 0.67 0.66 0.73 0.72 0.63 0.53 0.57 0.56 0.65 0.64 0.37 0.29 0.32
1.54 1.17 0.85 0.94 0.91 0.46 0.70 0.60 0.42 0.63 0.57 0.30 0.16 0.09 0.10 0.08 0.10 0.18 0.11 0.12 0.11 0.32 0.14 0.28 0.18 0.28 0.43 0.46 0.65 0.75 0.80 0.64 0.65 0.60 0.63 0.72 0.73 0.73 0.77 0.75 0.81 0.92 0.88 0.93 0.69 0.55 0.53 0.63 0.82 0.50 0.31 0.28
0.77 0.75 0.99 0.70 0.84 0.83 0.42 0.82 0.50 0.48 0.42 0.19 0.15 0.05 0.02 0.02 0.05 0.07 0.04 0.06 0.06 0.09 0.05 0.06 0.16 0.16 0.32 0.31 0.33 0.35 0.46 0.64 0.66 0.64 0.59 0.54 0.56 0.62 0.69 0.79 0.90 0.87 0.97 0.96 0.77 0.57 0.58 0.60 0.63 0.54 0.37 0.33
0.52 0.52 0.44 0.67 0.69 0.59 0.50 0.32 0.30 0.37 0.53 0.24 0.17 0.22 0.05 0.02 0.01 0.02 0.03 0.03 0.03 0.08 0.06 0.06 0.04 0.10 0.08 0.15 0.23 0.27 0.46 0.44 0.47 0.52 0.55 0.58 0.60 0.50 0.57 0.69 0.80 0.95 0.91 1.01 0.90 1.01 0.75 0.61 0.64 0.69 0.45 0.39
0.91 0.43 0.50 0.47 0.51 0.40 0.33 0.30 0.33 0.40 0.44 0.36 0.33 0.28 0.22 0.09 0.03 0.02 0.02 0.04 0.03 0.07 0.03 0.02 0.05 0.07 0.08 0.10 0.15 0.22 0.16 0.46 0.39 0.49 0.37 0.47 0.47 0.47 0.51 0.63 0.68 0.98 0.96 0.97 0.70 0.78 0.80 0.77 0.65 0.58 0.52 0.46
0.88 1.16 0.63 0.59 0.76 0.32 0.34 0.30 0.25 0.25 0.37 0.39 0.22 0.39 0.22 0.18 0.14 0.12 0.09 0.03 0.05 0.10 0.06 0.09 0.03 0.07 0.11 0.08 0.06 0.06 0.13 0.18 0.18 0.29 0.37 0.46 0.41 0.38 0.39 0.55 0.64 0.70 1.11 0.93 0.83 0.69 0.75 0.78 0.70 0.59 0.54 0.48
1.26 1.72 1.10 1.17 0.87 0.49 0.33 0.27 0.22 0.25 0.25 0.29 0.19 0.21 0.20 0.20 0.19 0.12 0.10 0.06 0.03 0.02 0.04 0.08 0.06 0.09 0.06 0.07 0.08 0.06 0.16 0.15 0.15 0.19 0.36 0.28 0.38 0.43 0.48 0.43 0.50 0.65 0.93 0.92 0.87 0.80 0.73 0.77 0.73 0.63 0.58 0.54
0.69 1.20 1.59 1.14 1.28 1.06 0.87 0.42 0.44 0.27 0.26 0.22 0.19 0.15 0.20 0.37 0.18 0.15 0.10 0.09 0.09 0.01 0.02 0.03 0.06 0.03 0.10 0.10 0.10 0.25 0.11 0.11 0.14 0.21 0.24 0.34 0.35 0.40 0.37 0.46 0.47 0.50 0.64 0.83 0.92 0.90 0.78 0.76 0.71 0.69 0.60 0.53
0.62 0.66 1.15 1.51 1.80 1.10 1.31 0.89 0.65 0.50 0.44 0.41 0.34 0.50 0.42 0.35 0.32 0.42 0.18 0.16 0.19 0.14 0.11 0.06 0.06 0.06 0.08 0.06 0.04 0.07 0.12 0.06 0.17 0.10 0.11 0.11 0.14 0.27 0.34 0.37 0.37 0.50 0.55 0.60 0.69 0.82 0.95 0.88 0.77 0.70 0.65 0.55
0.78 0.63 0.59 0.92 1.12 1.69 1.43 1.62 1.33 0.76 0.74 0.78 0.53 0.55 0.49 0.46 0.52 0.47 0.42 0.47 0.32 0.26 0.36 0.17 0.22 0.13 0.05 0.01 0.06 0.04 0.08 0.06 0.03 0.12 0.11 0.09 0.06 0.11 0.20 0.30 0.35 0.42 0.46 0.59 0.58 0.62 0.76 0.87 0.80 0.74 0.71 0.62
0.48 0.66 0.74 0.92 1.13 0.88 0.89 0.83 0.97 0.79 0.88 0.64 0.59 0.43 0.37 0.41 0.38 0.41 0.42 0.35 0.26 0.38 0.26 0.13 0.11 0.15 0.10 0.04 0.12 0.19 0.03 0.02 0.01 0.04 0.07 0.04 0.05 0.09 0.13 0.17 0.27 0.35 0.38 0.47 0.60 0.58 0.60 0.70 0.76 0.74 0.75 0.67
0.36 0.53 0.62 0.54 0.56 0.73 0.65 0.78 0.81 0.83 0.96 0.68 0.50 0.52 0.53 0.41 0.43 0.33 0.46 0.44 0.37 0.34 0.42 0.18 0.21 0.24 0.19 0.17 0.10 0.05 0.04 0.04 0.03 0.05 0.05 0.05 0.03 0.06 0.06 0.07 0.11 0.23 0.33 0.35 0.44 0.56 0.59 0.55 0.61 0.70 0.70 0.72
0.15 0.17 0.49 0.56 0.66 0.34 0.32 0.53 0.55 0.68 0.53 0.51 0.55 0.43 0.44 0.44 0.39 0.41 0.32 0.42 0.26 0.31 0.20 0.23 0.15 0.13 0.16 0.22 0.06 0.29 0.05 0.11 0.08 0.05 0.04 0.04 0.04 0.10 0.03 0.03 0.09 0.09 0.12 0.23 0.32 0.42 0.49 0.57 0.54 0.52 0.68 0.68
0.15 0.13 0.29 0.41 0.31 0.50 0.56 0.47 0.52 0.42 0.32 0.56 0.96 0.45 0.21 0.20 0.36 0.21 0.31 0.46 0.30 0.33 0.33 0.33 0.26 0.21 0.19 0.14 0.16 0.11 0.08 0.06 0.03 0.08 0.20 0.17 0.06 0.08 0.04 0.03 0.02 0.07 0.07 0.08 0.15 0.28 0.35 0.44 0.53 0.53 0.55 0.57
0.22 0.39 0.22 0.34 0.21 0.20 0.52 0.67 0.56 0.63 0.48 0.63 0.69 0.79 0.60 0.81 0.67 0.35 0.21 0.28 0.32 0.28 0.33 0.29 0.34 0.30 0.20 0.18 0.23 0.23 0.15 0.22 0.24 0.18 0.06 0.06 0.07 0.13 0.09 0.14 0.06 0.09 0.07 0.06 0.08 0.08 0.17 0.34 0.38 0.45 0.53 0.49
0.28 0.14 0.22 0.78 0.34 0.30 0.22 0.25 0.32 0.62 0.48 0.26 0.44 0.47 0.43 0.48 0.22 0.27 0.17 0.15 0.11 0.18 0.26 0.36 0.30 0.33 0.27 0.22 0.27 0.24 0.13 0.20 0.21 0.24 0.18 0.22 0.11 0.12 0.16 0.12 0.09 0.07 0.07 0.06 0.06 0.08 0.09 0.09 0.27 0.30 0.35 0.47
0.12 0.16 0.33 0.46 0.42 0.60 0.43 0.21 0.29 0.29 0.23 0.56 0.41 0.38 0.37 0.31 0.39 0.19 0.17 0.30 0.20 0.12 0.12 0.17 0.24 0.24 0.38 0.27 0.21 0.19 0.19 0.19 0.16 0.33 0.24 0.37 0.16 0.15 0.13 0.10 0.09 0.12 0.14 0.13 0.07 0.06 0.06 0.07 0.12 0.19 0.28 0.29
0.12 0.17 0.26 0.45 0.49 1.10 0.80 0.63 0.83 1.14 0.67 0.76 0.87 1.11 0.60 0.52 1.09 0.46 0.36 0.22 0.13 0.09 0.13 0.12 0.16 0.19 0.21 0.31 0.22 0.24 0.22 0.25 0.20 0.17 0.28 0.25 0.22 0.22 0.18 0.17 0.14 0.12 0.10 0.09 0.11 0.09 0.06 0.05 0.06 0.10 0.14 0.20
0.12 0.14 0.17 0.16 0.49 0.42 0.79 0.65 0.88 0.97 1.11 0.74 0.50 0.94 0.70 0.71 0.57 0.58 0.50 0.51 0.50 0.37 0.22 0.20 0.12 0.14 0.15 0.16 0.22 0.25 0.20 0.14 0.21 0.19 0.20 0.24 0.33 0.23 0.29 0.24 0.18 0.13 0.12 0.10 0.08 0.08 0.11 0.09 0.07 0.05 0.07 0.12
0.14 0.16 0.17 0.29 0.46 0.33 0.41 0.42 0.50 0.65 0.65 0.53 0.40 0.69 0.85 0.89 0.68 0.93 0.81 0.58 0.50 0.40 0.39 0.37 0.32 0.24 0.27 0.23 0.23 0.24 0.24 0.20 0.13 0.14 0.17 0.19 0.23 0.25 0.21 0.24 0.23 0.24 0.16 0.11 0.09 0.08 0.06 0.06 0.09 0.10 0.05 0.06
0.17 0.15 0.21 0.24 0.36 0.45 0.49 0.46 0.36 0.71 0.53 0.44 0.41 0.46 0.56 0.71 0.67 0.55 0.67 0.80 0.69 0.65 0.55 0.53 0.44 0.36 0.33 0.29 0.33 0.35 0.31 0.29 0.23 0.15 0.11 0.13 0.13 0.19 0.26 0.23 0.18 0.17 0.16 0.16 0.16 0.11 0.08 0.06 0.05 0.05 0.07 0.07
0.15 0.22 0.22 0.24 0.27 0.38 0.43 0.45 0.54 0.43 0.40 0.34 0.32 0.50 0.73 0.94 0.52 0.51 0.63 0.57 0.58 0.67 0.66 0.61 0.59 0.52 0.53 0.37 0.43 0.44 0.49 0.42 0.33 0.34 0.27 0.20 0.14 0.14 0.16 0.22 0.23 0.21 0.22 0.21 0.20 0.19 0.15 0.12 0.08 0.06 0.05 0.05
0.18 0.19 0.28 0.36 0.29 0.27 0.28 0.31 0.37 0.37 0.39 0.52 0.65 0.66 0.53 0.39 0.40 0.38 0.54 0.38 0.52 0.59 0.61 0.50 0.53 0.52 0.48 0.38 0.40 0.42 0.46 0.45 0.42 0.42 0.43 0.42 0.42 0.35 0.24 0.19 0.18 0.21 0.24 0.27 0.30 0.28 0.24 0.19 0.15 0.13 0.10 0.09
0.14 0.17 0.24 0.26 0.29 0.40 0.34 0.31 0.29 0.32 0.33 0.37 0.67 0.48 0.52 0.56 0.62 0.60 0.60 0.43 0.44 0.38 0.37 0.37 0.40 0.37 0.34 0.48 0.27 0.26 0.31 0.34 0.40 0.48 0.49 0.46 0.42 0.45 0.37 0.29 0.20 0.19 0.25 0.50 0.39 0.30 0.25 0.19 0.17 0.17 0.15 0.14
0.12 0.11 0.11 0.14 0.16 0.22 0.21 0.38 0.50 0.68 0.58 0.72 0.48 0.67 0.69 0.63 0.65 0.66 0.44 0.47 0.51 0.58 0.54 0.55 0.40 0.31 0.35 0.39 0.42 0.32 0.32 0.33 0.33 0.39 0.34 0.35 0.38 0.38 0.32 0.28 0.22 0.26 0.27 0.32 0.31 0.25 0.24 0.23 0.18 0.15 0.15 0.15
0.10 0.10 0.08 0.08 0.10 0.10 0.13 0.13 0.25 0.55 0.32 0.39 0.39 0.36 0.34 0.44 0.52 0.57 0.57 0.72 0.56 0.68 0.46 0.43 0.42 0.45 0.36 0.35 0.34 0.34 0.31 0.31 0.33 0.35 0.35 0.34 0.34 0.34 0.32 0.32 0.30 0.28 0.21 0.23 0.27 0.34 0.38 0.41 0.27 0.20 0.12 0.07
0.10 0.13 0.18 0.20 0.23 0.23 0.19 0.14 0.12 0.10 0.16 0.21 0.25 0.28 0.31 0.30 0.29 0.39 0.35 0.46 0.41 0.42 0.52 0.50 0.38 0.41 0.41 0.34 0.36 0.35 0.34 0.32 0.29 0.27 0.33 0.33 0.35 0.37 0.42 0.37 0.26 0.22 0.22 0.19 0.21 0.36 0.32 0.41 0.38 0.32 0.26 0.12
0.07 0.09 0.11 0.15 0.18 0.20 0.19 0.19 0.15 0.16 0.11 0.08 0.09 0.09 0.10 0.25 0.32 0.25 0.23 0.29 0.51 0.44 0.55 0.53 0.59 0.47 0.43 0.43 0.38 0.40 0.34 0.38 0.28 0.31 0.25 0.24 0.25 0.28 0.28 0.30 0.33 0.31 0.22 0.18 0.19 0.25 0.36 0.37 0.29 0.21 0.13 0.11
0.05 0.08 0.11 0.14 0.11 0.07 0.09 0.11 0.12 0.13 0.15 0.15 0.22 0.52 0.13 0.12 0.24 0.17 0.18 0.31 0.37 0.48 0.37 0.50 0.47 0.51 0.43 0.42 0.48 0.51 0.43 0.38 0.35 0.28 0.39 0.39 0.28 0.27 0.25 0.23 0.28 0.30 0.25 0.17 0.17 0.23 0.26 0.24 0.26 0.22 0.15 0.12

ECMWFFLT2_prec_precacc_144.txt.gz
Total_Precipitation_Accumulation
1.12 1.28 1.29 1.15 1.31 1.64 1.07 0.90 1.19 1.07 0.75 0.66 0.58 0.58 0.47 0.36 0.44 0.44 0.60 0.66 0.68 0.78 0.91 1.21 0.93 0.91 0.93 0.98 1.14 1.21 1.15 1.10 1.10 0.91 0.85 0.68 0.68 0.63 0.67 0.62 0.53 0.64 0.47 0.59 0.47 0.37 0.72 0.70 0.37 0.29 0.31 0.26
0.93 1.92 1.07 1.31 1.28 1.45 2.67 2.58 1.04 1.01 1.13 0.87 0.61 0.66 0.54 0.80 0.69 0.27 0.36 0.39 0.41 0.56 0.74 0.89 0.85 0.96 0.94 1.10 1.04 1.05 1.02 1.10 1.01 1.01 0.91 0.81 0.66 0.66 0.63 0.67 0.73 0.76 0.59 0.45 0.39 0.49 0.47 0.88 0.57 0.37 0.31 0.29
1.41 1.41 0.81 0.75 1.04 1.30 1.12 1.66 2.04 1.58 1.01 0.76 0.96 0.76 0.56 0.55 0.49 0.44 0.32 0.31 0.34 0.32 0.50 0.46 0.50 0.70 0.99 1.36 0.94 0.98 0.93 0.82 0.99 0.98 1.00 0.88 0.87 0.77 0.71 0.67 0.66 0.73 0.72 0.63 0.53 0.57 0.56 0.66 0.64 0.37 0.29 0.32
1.54 1.17 0.87 1.07 0.96 0.83 1.01 0.99 0.90 1.37 1.48 0.84 0.56 0.47 0.48 0.44 0.41 0.43 0.31 0.32 0.24 0.41 0.19 0.31 0.19 0.29 0.45 0.53 0.75 0.84 0.90 0.76 0.78 0.70 0.72 0.88 0.81 0.77 0.79 0.75 0.81 0.92 0.88 0.93 0.69 0.55 0.53 0.64 0.83 0.50 0.31 0.28
0.77 0.75 1.03 0.79 0.87 0.88 0.51 0.92 0.85 0.94 1.00 0.78 1.07 0.68 0.40 0.46 0.37 0.35 0.23 0.29 0.25 0.29 0.18 0.12 0.17 0.16 0.32 0.32 0.35 0.37 0.49 0.67 0.70 0.71 0.66 0.59 0.59 0.65 0.72 0.84 0.91 0.87 0.97 0.96 0.77 0.57 0.58 0.60 0.63 0.54 0.37 0.33
0.52 0.53 0.47 0.78 0.81 0.62 0.61 0.46 0.41 0.63 0.87 0.58 0.56 0.56 0.39 0.42 0.38 0.36 0.29 0.26 0.15 0.21 0.14 0.11 0.05 0.10 0.08 0.15 0.24 0.28 0.47 0.44 0.48 0.54 0.57 0.60 0.61 0.50 0.57 0.70 0.81 0.97 0.92 1.01 0.90 1.01 0.75 0.61 0.64 0.69 0.45 0.39
0.91 0.44 0.52 0.51 0.68 0.52 0.36 0.41 0.48 0.64 0.61 0.61 0.85 0.57 0.46 0.28 0.21 0.22 0.22 0.19 0.15 0.16 0.09 0.05 0.06 0.07 0.08 0.11 0.17 0.23 0.17 0.46 0.39 0.50 0.38 0.47 0.47 0.47 0.51 0.64 0.69 0.98 0.96 0.97 0.70 0.78 0.80 0.77 0.65 0.60 0.52 0.46
0.88 1.16 0.65 0.63 1.08 0.78 0.59 0.42 0.56 0.52 0.51 0.82 0.43 0.57 0.45 0.34 0.31 0.28 0.23 0.15 0.15 0.19 0.13 0.14 0.06 0.08 0.11 0.08 0.06 0.06 0.15 0.18 0.18 0.29 0.38 0.46 0.41 0.38 0.39 0.55 0.64 0.70 1.11 0.95 0.83 0.69 0.75 0.78 0.70 0.59 0.54 0.48
1.27 1.73 1.11 1.17 0.98 0.68 0.63 0.38 0.24 0.27 0.25 0.36 0.28 0.29 0.45 0.52 0.32 0.25 0.28 0.24 0.17 0.13 0.12 0.14 0.10 0.11 0.07 0.07 0.08 0.06 0.16 0.15 0.15 0.20 0.36 0.28 0.38 0.43 0.48 0.43 0.50 0.65 0.93 0.92 0.87 0.80 0.73 0.77 0.73 0.63 0.58 0.54
0.69 1.21 1.60 1.15 1.29 1.38 1.21 0.87 0.81 0.46 0.37 0.24 0.26 0.18 0.22 0.41 0.31 0.43 0.34 0.28 0.21 0.08 0.06 0.06 0.08 0.05 0.11 0.12 0.11 0.25 0.11 0.11 0.14 0.21 0.24 0.34 0.35 0.40 0.37 0.46 0.47 0.50 0.64 0.83 0.92 0.90 0.78 0.77 0.71 0.69 0.60 0.53
0.62 0.67 1.16 1.52 1.81 1.11 1.35 0.92 0.76 0.60 0.62 0.52 0.34 0.57 0.47 0.50 0.42 0.51 0.28 0.24 0.27 0.21 0.20 0.17 0.19 0.20 0.19 0.12 0.07 0.07 0.12 0.06 0.17 0.10 0.11 0.11 0.14 0.27 0.34 0.37 0.37 0.50 0.55 0.60 0.69 0.82 0.95 0.88 0.77 0.70 0.65 0.55
0.78 0.64 0.60 0.93 1.12 1.69 1.43 1.66 1.58 1.21 1.10 1.22 0.82 0.79 0.65 0.82 0.69 0.52 0.50 0.54 0.39 0.35 0.48 0.30 0.34 0.23 0.13 0.06 0.08 0.05 0.08 0.06 0.03 0.12 0.11 0.09 0.06 0.11 0.20 0.30 0.35 0.42 0.46 0.59 0.58 0.62 0.76 0.87 0.80 0.74 0.71 0.62
0.48 0.66 0.75 0.93 1.14 0.88 0.89 0.84 0.97 0.84 1.12 0.89 0.82 0.59 0.48 0.61 0.46 0.50 0.46 0.38 0.30 0.42 0.31 0.19 0.16 0.21 0.16 0.10 0.15 0.22 0.06 0.04 0.02 0.05 0.07 0.04 0.05 0.09 0.13 0.17 0.27 0.35 0.38 0.47 0.60 0.58 0.60 0.70 0.76 0.74 0.75 0.67
0.36 0.53 0.62 0.55 0.57 0.76 0.66 0.79 0.82 0.83 1.02 0.79 0.61 0.65 0.71 0.61 0.55 0.40 0.52 0.52 0.41 0.36 0.45 0.21 0.24 0.28 0.24 0.21 0.14 0.08 0.07 0.07 0.05 0.06 0.05 0.05 0.03 0.06 0.06 0.07 0.11 0.23 0.33 0.35 0.44 0.56 0.59 0.55 0.61 0.70 0.70 0.72
0.15 0.17 0.49 0.58 0.67 0.36 0.34 0.56 0.57 0.70 0.55 0.53 0.64 0.60 0.55 0.51 0.50 0.48 0.38 0.46 0.28 0.33 0.21 0.24 0.17 0.15 0.19 0.26 0.12 0.32 0.07 0.12 0.08 0.06 0.04 0.04 0.04 0.10 0.03 0.03 0.09 0.09 0.12 0.23 0.32 0.42 0.49 0.57 0.54 0.52 0.68 0.68
0.15 0.13 0.29 0.41 0.31 0.51 0.60 0.53 0.57 0.45 0.35 0.79 1.24 0.63 0.41 0.34 0.63 0.26 0.41 0.55 0.33 0.34 0.38 0.33 0.27 0.23 0.22 0.17 0.22 0.23 0.14 0.07 0.04 0.08 0.20 0.17 0.06 0.08 0.04 0.03 0.02 0.07 0.07 0.08 0.15 0.28 0.35 0.44 0.53 0.53 0.55 0.57
0.22 0.39 0.22 0.35 0.23 0.25 0.60 0.75 0.65 0.68 0.50 0.68 0.73 0.91 0.78 1.18 0.95 0.59 0.47 0.52 0.45 0.39 0.40 0.36 0.38 0.36 0.27 0.25 0.38 0.37 0.28 0.26 0.24 0.18 0.06 0.06 0.07 0.13 0.09 0.14 0.06 0.09 0.07 0.06 0.08 0.08 0.17 0.34 0.38 0.45 0.53 0.49
0.28 0.14 0.22 0.78 0.35 0.35 0.29 0.35 0.43 0.73 0.56 0.33 0.50 0.58 0.54 0.66 0.41 0.50 0.39 0.40 0.33 0.36 0.40 0.45 0.37 0.38 0.32 0.28 0.36 0.34 0.25 0.32 0.26 0.26 0.18 0.22 0.11 0.12 0.16 0.12 0.09 0.07 0.07 0.06 0.06 0.08 0.09 0.09 0.27 0.30 0.35 0.47
0.12 0.16 0.33 0.46 0.42 0.61 0.48 0.32 0.38 0.38 0.29 0.64 0.53 0.51 0.50 0.43 0.58 0.44 0.39 0.50 0.39 0.32 0.25 0.33 0.33 0.34 0.48 0.33 0.28 0.29 0.28 0.29 0.27 0.38 0.25 0.37 0.16 0.15 0.13 0.10 0.09 0.12 0.14 0.13 0.07 0.06 0.06 0.07 0.12 0.19 0.28 0.29
0.12 0.18 0.26 0.46 0.49 1.10 0.81 0.67 0.91 1.24 0.77 0.83 0.91 1.15 0.67 0.64 1.25 0.64 0.56 0.40 0.34 0.30 0.32 0.29 0.25 0.31 0.28 0.37 0.31 0.33 0.31 0.33 0.27 0.25 0.33 0.25 0.22 0.22 0.18 0.17 0.14 0.12 0.10 0.09 0.11 0.09 0.06 0.05 0.06 0.10 0.14 0.20
0.12 0.14 0.17 0.17 0.49 0.42 0.79 0.66 0.93 1.06 1.20 0.83 0.55 0.97 0.72 0.74 0.63 0.69 0.66 0.70 0.71 0.54 0.49 0.45 0.31 0.24 0.23 0.24 0.30 0.31 0.29 0.20 0.26 0.23 0.25 0.28 0.34 0.23 0.29 0.24 0.18 0.13 0.12 0.10 0.08 0.08 0.11 0.09 0.07 0.05 0.07 0.12
0.14 0.16 0.18 0.30 0.46 0.33 0.41 0.42 0.51 0.70 0.76 0.65 0.51 0.77 0.90 0.92 0.71 0.96 0.87 0.70 0.66 0.59 0.59 0.67 0.56 0.42 0.43 0.38 0.37 0.39 0.38 0.31 0.22 0.22 0.23 0.24 0.26 0.26 0.21 0.24 0.23 0.24 0.16 0.11 0.09 0.08 0.06 0.06 0.09 0.10 0.05 0.06
0.17 0.15 0.21 0.24 0.36 0.45 0.49 0.46 0.36 0.71 0.55 0.50 0.51 0.57 0.66 0.79 0.71 0.58 0.70 0.84 0.75 0.77 0.70 0.72 0.68 0.61 0.54 0.47 0.50 0.54 0.51 0.48 0.40 0.27 0.19 0.18 0.17 0.21 0.26 0.23 0.18 0.17 0.16 0.16 0.16 0.11 0.08 0.06 0.05 0.05 0.07 0.07
0.15 0.22 0.22 0.25 0.28 0.39 0.43 0.45 0.54 0.44 0.43 0.39 0.40 0.58 0.82 1.03 0.61 0.58 0.67 0.61 0.63 0.73 0.73 0.72 0.74 0.71 0.74 0.59 0.63 0.63 0.68 0.63 0.54 0.53 0.44 0.34 0.24 0.21 0.21 0.25 0.24 0.21 0.22 0.21 0.20 0.19 0.15 0.12 0.08 0.06 0.05 0.05
0.18 0.19 0.28 0.36 0.29 0.27 0.28 0.31 0.37 0.38 0.39 0.54 0.70 0.73 0.64 0.50 0.51 0.48 0.61 0.44 0.57 0.64 0.66 0.56 0.61 0.62 0.61 0.54 0.58 0.59 0.62 0.62 0.65 0.67 0.69 0.67 0.66 0.57 0.40 0.28 0.22 0.21 0.24 0.27 0.30 0.28 0.24 0.19 0.15 0.13 0.10 0.09
0.14 0.17 0.24 0.26 0.29 0.40 0.34 0.31 0.29 0.32 0.33 0.37 0.68 0.49 0.54 0.63 0.75 0.76 0.74 0.55 0.53 0.45 0.43 0.44 0.49 0.47 0.45 0.59 0.39 0.39 0.44 0.47 0.51 0.61 0.65 0.66 0.66 0.69 0.59 0.47 0.32 0.25 0.28 0.52 0.39 0.30 0.25 0.19 0.17 0.17 0.15 0.14
0.12 0.11 0.11 0.14 0.16 0.22 0.21 0.38 0.50 0.68 0.58 0.72 0.48 0.67 0.69 0.63 0.66 0.72 0.57 0.63 0.68 0.74 0.67 0.65 0.48 0.40 0.44 0.49 0.53 0.43 0.43 0.44 0.45 0.51 0.44 0.44 0.46 0.49 0.45 0.45 0.41 0.44 0.44 0.43 0.37 0.28 0.25 0.24 0.18 0.15 0.15 0.15
0.10 0.10 0.08 0.08 0.10 0.10 0.13 0.13 0.25 0.55 0.32 0.39 0.39 0.36 0.34 0.44 0.52 0.57 0.59 0.78 0.67 0.83 0.63 0.60 0.55 0.55 0.43 0.42 0.41 0.43 0.41 0.42 0.43 0.45 0.46 0.46 0.46 0.44 0.42 0.42 0.39 0.37 0.33 0.42 0.48 0.57 0.53 0.48 0.29 0.21 0.12 0.07
0.10 0.13 0.18 0.20 0.23 0.23 0.19 0.14 0.12 0.10 0.16 0.21 0.25 0.28 0.31 0.30 0.29 0.39 0.35 0.47 0.43 0.46 0.62 0.67 0.58 0.59 0.55 0.43 0.42 0.41 0.40 0.39 0.37 0.35 0.41 0.42 0.46 0.48 0.51 0.45 0.33 0.29 0.30 0.30 0.37 0.57 0.54 0.58 0.51 0.39 0.28 0.12
0.07 0.09 0.11 0.15 0.18 0.20 0.19 0.19 0.15 0.16 0.11 0.08 0.09 0.09 0.10 0.25 0.32 0.25 0.23 0.29 0.51 0.44 0.55 0.56 0.69 0.65 0.64 0.65 0.57 0.52 0.41 0.44 0.33 0.37 0.32 0.30 0.32 0.36 0.37 0.40 0.43 0.41 0.30 0.27 0.29 0.38 0.52 0.51 0.42 0.31 0.18 0.14
0.05 0.08 0.11 0.14 0.11 0.07 0.09 0.11 0.12 0.13 0.15 0.15 0.22 0.52 0.13 0.12 0.24 0.17 0.18 0.31 0.37 0.48 0.37 0.51 0.48 0.55 0.53 0.57 0.67 0.70 0.60 0.53 0.46 0.36 0.45 0.44 0.34 0.33 0.32 0.33 0.38 0.37 0.31 0.22 0.23 0.30 0.34 0.32 0.34 0.28 0.19 0.18

ECMWFFLT2_prec_precacc_150.txt.gz
Total_Precipitation_Accumulation
1.12 1.29 1.29 1.16 1.32 1.65 1.08 0.91 1.19 1.07 0.76 0.71 0.64 0.62 0.58 0.57 0.62 0.56 1.04 0.97 0.95 1.00 1.25 1.82 1.91 1.88 1.76 1.58 1.67 1.88 1.65 1.62 1.55 1.39 1.18 1.04 0.90 0.82 0.81 0.72 0.55 0.65 0.56 0.74 0.62 0.45 0.78 0.78 0.44 0.32 0.32 0.27
0.93 1.93 1.08 1.32 1.29 1.46 2.67 2.59 1.04 1.01 1.16 1.01 0.73 0.75 0.65 0.91 0.92 0.75 0.80 0.94 0.90 1.07 1.11 1.12 1.08 1.47 1.45 1.59 1.47 1.45 1.40 1.51 1.44 1.37 1.19 1.01 0.80 0.75 0.68 0.73 0.78 0.77 0.60 0.49 0.43 0.58 0.56 0.90 0.62 0.41 0.31 0.30
1.41 1.42 0.81 0.77 1.05 1.30 1.13 1.67 2.04 1.70 1.14 0.99 1.63 1.32 1.15 0.90 0.84 0.81 0.74 0.58 0.58 0.45 0.59 0.57 0.64 0.81 1.19 1.68 1.34 1.42 1.36 1.27 1.40 1.46 1.36 1.15 1.13 0.94 0.80 0.77 0.76 0.77 0.78 0.66 0.57 0.59 0.60 0.76 0.66 0.37 0.29 0.32
1.54 1.17 0.87 1.11 0.99 0.85 1.02 0.99 0.91 1.47 1.91 1.81 1.48 1.31 1.80 1.92 1.27 0.79 0.57 0.61 0.48 0.59 0.31 0.40 0.24 0.33 0.53 0.70 0.98 1.20 1.23 1.08 1.12 1.02 1.14 1.25 1.04 0.99 0.96 0.85 0.88 0.98 0.93 0.97 0.72 0.57 0.54 0.66 0.87 0.51 0.31 0.28
0.77 0.76 1.03 0.82 0.93 0.91 0.53 0.94 0.86 0.96 1.08 1.05 1.61 1.46 1.07 1.17 1.13 0.77 0.50 0.50 0.53 0.49 0.40 0.30 0.36 0.32 0.40 0.44 0.53 0.72 0.74 0.89 0.92 0.92 0.85 0.83 0.76 0.84 0.87 0.98 1.01 0.91 1.01 0.99 0.79 0.59 0.60 0.60 0.63 0.55 0.37 0.33
0.52 0.54 0.47 0.79 0.88 0.69 0.65 0.48 0.45 0.66 0.90 0.70 0.75 0.79 0.78 0.98 1.10 1.13 0.99 0.87 0.60 0.61 0.59 0.56 0.40 0.43 0.35 0.41 0.56 0.64 0.95 0.84 0.72 0.72 0.68 0.70 0.71 0.59 0.65 0.78 0.93 1.09 1.01 1.04 0.90 1.02 0.76 0.61 0.64 0.69 0.45 0.39
0.91 0.44 0.52 0.51 0.68 0.59 0.48 0.47 0.53 0.73 0.79 0.71 1.02 0.72 0.62 0.49 0.53 0.58 0.64 0.71 0.72 0.79 0.73 0.64 0.59 0.46 0.41 0.41 0.52 0.67 0.63 0.87 0.78 0.77 0.68 0.56 0.54 0.59 0.54 0.67 0.72 1.04 1.05 1.11 0.77 0.79 0.80 0.77 0.65 0.60 0.52 0.46
0.88 1.16 0.65 0.63 1.08 0.78 0.62 0.49 0.65 0.59 0.88 1.30 0.67 0.86 0.65 0.56 0.49 0.45 0.42 0.42 0.47 0.49 0.45 0.49 0.38 0.38 0.42 0.38 0.35 0.34 0.48 0.52 0.51 0.47 0.53 0.51 0.43 0.39 0.39 0.56 0.65 0.75 1.13 0.97 0.92 0.77 0.80 0.79 0.70 0.59 0.54 0.48
1.27 1.73 1.11 1.18 0.99 0.68 0.66 0.46 0.38 0.48 0.47 0.51 0.45 0.50 0.72 0.69 0.64 0.51 0.59 0.46 0.41 0.41 0.36 0.34 0.29 0.29 0.22 0.23 0.25 0.24 0.36 0.34 0.37 0.35 0.47 0.36 0.45 0.48 0.49 0.43 0.50 0.66 0.94 0.94 0.88 0.81 0.76 0.81 0.75 0.64 0.58 0.54
0.69 1.21 1.60 1.15 1.29 1.38 1.21 0.88 0.89 0.59 0.58 0.44 0.42 0.45 0.41 0.52 0.41 0.56 0.44 0.44 0.35 0.21 0.18 0.17 0.19 0.15 0.22 0.23 0.25 0.42 0.28 0.27 0.28 0.33 0.34 0.43 0.43 0.46 0.41 0.47 0.47 0.50 0.64 0.85 0.93 0.91 0.79 0.77 0.72 0.70 0.60 0.53
0.62 0.67 1.16 1.52 1.81 1.11 1.35 0.92 0.77 0.61 0.72 0.75 0.58 0.76 0.59 0.59 0.49 0.57 0.48 0.35 0.57 0.37 0.33 0.27 0.27 0.29 0.30 0.22 0.16 0.15 0.18 0.11 0.21 0.14 0.13 0.12 0.14 0.27 0.34 0.38 0.38 0.51 0.55 0.60 0.69 0.83 0.96 0.90 0.78 0.70 0.65 0.56
0.78 0.64 0.60 0.93 1.12 1.69 1.43 1.66 1.59 1.22 1.11 1.23 0.89 0.84 0.74 0.95 0.80 0.63 0.63 0.63 0.48 0.53 0.69 0.46 0.45 0.31 0.20 0.13 0.15 0.11 0.13 0.09 0.05 0.14 0.12 0.10 0.07 0.11 0.20 0.30 0.35 0.42 0.46 0.59 0.58 0.63 0.77 0.88 0.80 0.74 0.71 0.62
0.48 0.66 0.75 0.93 1.14 0.88 0.90 0.84 0.98 0.85 1.13 0.90 0.83 0.63 0.51 0.65 0.55 0.63 0.57 0.51 0.46 0.58 0.49 0.40 0.33 0.32 0.20 0.13 0.19 0.25 0.08 0.07 0.04 0.06 0.08 0.04 0.06 0.09 0.13 0.17 0.27 0.35 0.38 0.47 0.60 0.58 0.60 0.70 0.76 0.74 0.75 0.67
0.36 0.53 0.62 0.55 0.58 0.76 0.67 0.79 0.83 0.85 1.03 0.81 0.62 0.67 0.79 0.71 0.67 0.53 0.67 0.69 0.58 0.56 0.63 0.42 0.38 0.39 0.30 0.24 0.17 0.11 0.09 0.08 0.06 0.07 0.06 0.06 0.03 0.06 0.06 0.07 0.11 0.23 0.33 0.35 0.44 0.56 0.60 0.61 0.62 0.70 0.70 0.72
0.15 0.17 0.49 0.58 0.67 0.36 0.34 0.56 0.59 0.73 0.59 0.56 0.68 0.65 0.63 0.66 0.64 0.58 0.51 0.57 0.37 0.46 0.36 0.40 0.32 0.33 0.27 0.30 0.15 0.35 0.09 0.13 0.09 0.06 0.04 0.04 0.05 0.10 0.03 0.03 0.09 0.09 0.12 0.23 0.32 0.42 0.49 0.57 0.55 0.52 0.68 0.68
0.15 0.13 0.29 0.41 0.31 0.51 0.60 0.53 0.58 0.49 0.39 0.83 1.29 0.69 0.49 0.45 0.78 0.40 0.56 0.67 0.47 0.44 0.49 0.46 0.39 0.34 0.34 0.24 0.27 0.28 0.18 0.11 0.06 0.11 0.20 0.20 0.07 0.08 0.04 0.03 0.02 0.07 0.07 0.08 0.15 0.28 0.35 0.44 0.54 0.54 0.55 0.57
0.22 0.39 0.22 0.35 0.23 0.25 0.60 0.75 0.65 0.71 0.55 0.72 0.77 0.94 0.82 1.22 1.05 0.76 0.65 0.67 0.58 0.53 0.52 0.50 0.54 0.51 0.42 0.38 0.51 0.48 0.37 0.37 0.37 0.26 0.08 0.08 0.07 0.15 0.09 0.14 0.06 0.09 0.07 0.06 0.08 0.08 0.17 0.34 0.38 0.45 0.53 0.49
0.28 0.14 0.22 0.78 0.35 0.35 0.29 0.35 0.43 0.74 0.61 0.39 0.57 0.64 0.60 0.72 0.46 0.60 0.52 0.53 0.48 0.52 0.59 0.66 0.59 0.61 0.56 0.51 0.53 0.49 0.38 0.46 0.41 0.37 0.26 0.28 0.13 0.12 0.16 0.12 0.09 0.07 0.07 0.06 0.06 0.08 0.09 0.09 0.27 0.30 0.35 0.47
0.12 0.16 0.33 0.46 0.42 0.61 0.48 0.32 0.38 0.38 0.30 0.67 0.59 0.58 0.57 0.50 0.67 0.52 0.46 0.69 0.54 0.53 0.47 0.56 0.57 0.56 0.71 0.58 0.53 0.52 0.44 0.48 0.44 0.56 0.39 0.45 0.22 0.17 0.15 0.10 0.09 0.12 0.14 0.13 0.07 0.06 0.06 0.07 0.12 0.19 0.28 0.29
0.12 0.18 0.26 0.46 0.49 1.10 0.81 0.67 0.91 1.24 0.77 0.86 0.96 1.21 0.73 0.69 1.31 0.71 0.65 0.52 0.46 0.44 0.51 0.52 0.55 0.64 0.57 0.63 0.55 0.60 0.54 0.58 0.53 0.48 0.55 0.43 0.36 0.29 0.23 0.17 0.14 0.12 0.10 0.09 0.11 0.09 0.06 0.05 0.06 0.10 0.14 0.20
0.12 0.14 0.17 0.17 0.49 0.42 0.79 0.66 0.93 1.06 1.20 0.83 0.58 1.02 0.79 0.81 0.71 0.77 0.73 0.78 0.82 0.70 0.68 0.66 0.53 0.49 0.53 0.54 0.60 0.62 0.58 0.46 0.56 0.49 0.55 0.56 0.58 0.45 0.41 0.33 0.21 0.13 0.12 0.10 0.08 0.08 0.11 0.09 0.07 0.05 0.07 0.12
0.14 0.16 0.18 0.30 0.46 0.33 0.41 0.42 0.51 0.70 0.76 0.65 0.52 0.80 0.94 0.98 0.77 1.03 0.94 0.77 0.74 0.70 0.73 0.85 0.78 0.67 0.68 0.64 0.64 0.68 0.68 0.63 0.54 0.50 0.53 0.56 0.60 0.57 0.46 0.43 0.37 0.28 0.17 0.11 0.09 0.08 0.06 0.06 0.09 0.10 0.05 0.06
0.17 0.15 0.21 0.24 0.36 0.45 0.49 0.46 0.36 0.71 0.55 0.50 0.51 0.57 0.67 0.82 0.77 0.65 0.77 0.90 0.82 0.85 0.80 0.86 0.86 0.83 0.79 0.74 0.78 0.80 0.80 0.81 0.73 0.56 0.47 0.48 0.49 0.56 0.63 0.55 0.41 0.35 0.25 0.19 0.16 0.11 0.08 0.06 0.05 0.05 0.07 0.07
0.15 0.22 0.22 0.25 0.28 0.39 0.43 0.45 0.54 0.44 0.43 0.39 0.40 0.58 0.82 1.03 0.62 0.61 0.72 0.65 0.67 0.78 0.80 0.82 0.87 0.87 0.93 0.83 0.87 0.88 0.93 0.90 0.80 0.89 0.84 0.74 0.59 0.58 0.58 0.61 0.57 0.46 0.37 0.31 0.25 0.20 0.15 0.12 0.08 0.06 0.05 0.05
0.18 0.19 0.28 0.36 0.29 0.27 0.28 0.31 0.37 0.38 0.39 0.54 0.70 0.73 0.64 0.50 0.51 0.48 0.63 0.46 0.60 0.67 0.69 0.60 0.67 0.72 0.75 0.71 0.79 0.84 0.89 0.90 0.91 0.98 1.02 1.08 1.09 1.02 0.81 0.69 0.58 0.54 0.50 0.46 0.40 0.31 0.25 0.19 0.15 0.13 0.10 0.09
0.14 0.17 0.24 0.26 0.29 0.40 0.34 0.31 0.29 0.32 0.33 0.37 0.68 0.49 0.54 0.63 0.75 0.76 0.75 0.56 0.55 0.48 0.46 0.46 0.51 0.52 0.53 0.69 0.52 0.56 0.66 0.72 0.78 0.90 0.94 0.93 0.97 1.02 0.92 0.80 0.66 0.59 0.68 0.86 0.65 0.44 0.30 0.20 0.17 0.17 0.15 0.14
0.12 0.11 0.11 0.14 0.16 0.22 0.21 0.38 0.50 0.68 0.58 0.72 0.48 0.67 0.69 0.63 0.66 0.72 0.57 0.63 0.68 0.75 0.69 0.69 0.52 0.44 0.48 0.54 0.60 0.52 0.55 0.60 0.66 0.78 0.75 0.77 0.78 0.82 0.75 0.75 0.74 0.75 0.74 0.79 0.68 0.51 0.43 0.38 0.23 0.16 0.15 0.15
0.10 0.10 0.08 0.08 0.10 0.10 0.13 0.13 0.25 0.55 0.32 0.39 0.39 0.36 0.34 0.44 0.52 0.57 0.59 0.78 0.67 0.84 0.64 0.61 0.59 0.61 0.50 0.48 0.47 0.49 0.47 0.50 0.54 0.58 0.65 0.72 0.78 0.78 0.74 0.72 0.66 0.61 0.56 0.72 0.78 0.88 0.84 0.72 0.41 0.30 0.17 0.07
0.10 0.13 0.18 0.20 0.23 0.23 0.19 0.14 0.12 0.10 0.16 0.21 0.25 0.28 0.31 0.30 0.29 0.39 0.35 0.47 0.43 0.46 0.62 0.67 0.59 0.62 0.59 0.50 0.50 0.48 0.47 0.46 0.46 0.45 0.53 0.57 0.64 0.72 0.81 0.75 0.62 0.58 0.55 0.57 0.64 0.93 0.85 0.85 0.73 0.54 0.35 0.14
0.07 0.09 0.11 0.15 0.18 0.20 0.19 0.19 0.15 0.16 0.11 0.08 0.09 0.09 0.10 0.25 0.32 0.25 0.23 0.29 0.51 0.44 0.55 0.56 0.69 0.65 0.65 0.68 0.62 0.60 0.51 0.53 0.41 0.45 0.41 0.43 0.47 0.52 0.54 0.62 0.64 0.66 0.55 0.56 0.58 0.70 0.85 0.79 0.64 0.43 0.25 0.19
0.05 0.08 0.11 0.14 0.11 0.07 0.09 0.11 0.12 0.13 0.15 0.15 0.22 0.52 0.13 0.12 0.24 0.17 0.18 0.31 0.37 0.48 0.37 0.51 0.48 0.55 0.54 0.57 0.68 0.74 0.66 0.61 0.56 0.47 0.56 0.55 0.45 0.46 0.47 0.49 0.54 0.52 0.49 0.44 0.47 0.58 0.66 0.62 0.58 0.48 0.34 0.30

ECMWFFLT2_prec_precacc_156.txt.gz
Total_Precipitation_Accumulation
1.12 1.29 1.29 1.16 1.32 1.65 1.08 0.91 1.20 1.08 0.77 0.73 0.66 0.63 0.61 0.59 0.62 0.60 1.16 1.13 1.02 1.02 1.27 1.84 2.05 2.25 2.21 2.01 1.95 2.18 2.09 2.07 2.11 2.21 2.44 2.65 2.69 2.47 1.99 1.46 1.23 1.17 1.01 1.37 1.26 0.69 2.00 1.49 1.30 0.61 0.86 0.90
0.93 1.93 1.08 1.32 1.29 1.46 2.68 2.59 1.04 1.01 1.17 1.02 0.75 0.77 0.69 0.95 1.01 0.90 1.01 1.17 1.03 1.13 1.16 1.16 1.11 1.58 1.77 1.89 1.84 1.80 1.67 1.82 1.87 1.75 1.73 1.80 1.65 1.68 1.86 2.06 2.23 2.18 1.63 1.14 0.85 0.87 0.79 1.20 1.49 0.99 1.00 0.68
1.41 1.42 0.81 0.77 1.05 1.30 1.13 1.67 2.04 1.70 1.14 1.00 1.63 1.33 1.15 0.93 0.91 0.87 0.80 0.65 0.63 0.48 0.61 0.58 0.66 0.82 1.26 1.86 1.59 1.73 1.65 1.56 1.65 1.80 1.65 1.44 1.60 1.61 1.40 1.34 1.28 1.26 1.28 1.08 0.95 0.98 1.08 1.08 1.02 0.55 0.54 0.61
1.54 1.17 0.87 1.11 0.99 0.85 1.02 0.99 0.91 1.47 1.91 1.82 1.49 1.33 1.81 1.92 1.30 0.81 0.59 0.63 0.51 0.62 0.33 0.41 0.25 0.34 0.53 0.71 1.08 1.40 1.57 1.45 1.47 1.44 1.58 1.64 1.39 1.45 1.44 1.42 1.32 1.32 1.21 1.21 1.02 0.92 0.84 1.20 1.50 0.92 0.56 0.50
0.77 0.76 1.03 0.82 0.93 0.91 0.53 0.94 0.86 0.96 1.08 1.05 1.64 1.50 1.08 1.17 1.13 0.81 0.55 0.54 0.57 0.52 0.42 0.32 0.38 0.35 0.41 0.45 0.55 0.75 0.89 1.18 1.40 1.53 1.36 1.37 1.27 1.44 1.29 1.40 1.49 1.27 1.34 1.20 1.01 0.86 0.86 0.86 0.94 1.02 0.90 0.58
0.52 0.54 0.47 0.79 0.88 0.69 0.65 0.48 0.45 0.66 0.90 0.70 0.76 0.80 0.80 0.99 1.11 1.13 1.01 0.90 0.63 0.65 0.61 0.59 0.42 0.44 0.36 0.42 0.57 0.67 1.02 0.94 0.98 1.20 1.28 1.31 1.41 1.19 1.09 1.30 1.38 1.49 1.40 1.37 1.16 1.23 0.96 0.88 0.93 0.89 0.66 0.67
0.91 0.44 0.52 0.51 0.68 0.59 0.48 0.47 0.53 0.73 0.79 0.71 1.02 0.76 0.68 0.51 0.54 0.59 0.65 0.73 0.75 0.82 0.75 0.66 0.60 0.47 0.42 0.42 0.53 0.70 0.66 0.93 1.12 1.30 1.01 0.90 1.10 1.33 1.39 1.31 1.29 1.42 1.45 1.61 1.15 1.15 1.11 1.20 0.92 0.82 0.72 0.64
0.88 1.16 0.65 0.63 1.08 0.78 0.62 0.49 0.65 0.59 0.88 1.30 0.67 0.87 0.66 0.56 0.49 0.45 0.43 0.43 0.50 0.50 0.48 0.52 0.40 0.40 0.44 0.40 0.38 0.38 0.53 0.59 0.67 0.75 0.82 0.84 0.84 0.82 0.93 1.17 1.16 1.24 1.56 1.33 1.31 1.16 1.13 1.07 0.99 0.83 0.74 0.67
1.27 1.73 1.11 1.18 0.99 0.68 0.66 0.46 0.38 0.48 0.47 0.51 0.45 0.50 0.72 0.69 0.64 0.51 0.59 0.47 0.41 0.42 0.38 0.37 0.32 0.34 0.27 0.28 0.31 0.31 0.44 0.42 0.46 0.49 0.68 0.60 0.68 0.72 0.74 0.70 0.77 0.99 1.26 1.26 1.19 1.15 1.10 1.15 1.03 0.83 0.78 0.72
0.69 1.21 1.60 1.15 1.29 1.38 1.21 0.88 0.89 0.59 0.58 0.44 0.43 0.45 0.41 0.52 0.41 0.56 0.44 0.44 0.35 0.22 0.20 0.19 0.21 0.19 0.27 0.29 0.32 0.49 0.37 0.35 0.36 0.40 0.43 0.53 0.56 0.58 0.51 0.56 0.55 0.60 0.81 1.05 1.15 1.11 0.98 1.00 0.96 0.89 0.81 0.69
0.62 0.67 1.16 1.52 1.81 1.11 1.35 0.92 0.77 0.61 0.72 0.75 0.58 0.76 0.59 0.59 0.49 0.57 0.48 0.35 0.57 0.37 0.34 0.28 0.28 0.33 0.36 0.28 0.23 0.25 0.29 0.21 0.32 0.25 0.23 0.21 0.20 0.34 0.39 0.43 0.43 0.56 0.61 0.68 0.82 0.97 1.09 1.03 0.90 0.83 0.82 0.70
0.78 0.64 0.60 0.93 1.12 1.69 1.43 1.66 1.59 1.22 1.11 1.23 0.89 0.84 0.74 0.95 0.80 0.63 0.63 0.63 0.48 0.54 0.69 0.46 0.47 0.38 0.29 0.22 0.25 0.22 0.23 0.19 0.15 0.24 0.22 0.18 0.12 0.15 0.22 0.31 0.36 0.42 0.47 0.60 0.61 0.67 0.83 0.95 0.87 0.81 0.76 0.67
0.48 0.66 0.75 0.93 1.14 0.88 0.90 0.84 0.98 0.85 1.13 0.90 0.83 0.63 0.51 0.65 0.55 0.63 0.57 0.51 0.46 0.58 0.49 0.40 0.34 0.39 0.35 0.33 0.34 0.37 0.19 0.18 0.17 0.19 0.20 0.16 0.16 0.18 0.21 0.23 0.29 0.37 0.39 0.48 0.60 0.59 0.61 0.73 0.80 0.78 0.79 0.70
0.36 0.53 0.62 0.55 0.58 0.76 0.67 0.79 0.83 0.85 1.03 0.81 0.62 0.67 0.79 0.71 0.67 0.53 0.67 0.69 0.58 0.56 0.64 0.42 0.38 0.42 0.40 0.38 0.30 0.21 0.16 0.14 0.11 0.12 0.11 0.12 0.11 0.14 0.12 0.12 0.15 0.25 0.34 0.36 0.44 0.57 0.60 0.61 0.63 0.73 0.74 0.75
0.15 0.17 0.49 0.58 0.67 0.36 0.34 0.56 0.59 0.73 0.59 0.56 0.68 0.65 0.63 0.66 0.64 0.58 0.51 0.57 0.37 0.46 0.37 0.40 0.33 0.34 0.30 0.37 0.26 0.46 0.18 0.21 0.15 0.10 0.08 0.08 0.08 0.14 0.06 0.06 0.11 0.12 0.13 0.24 0.33 0.43 0.50 0.58 0.56 0.53 0.71 0.71
0.15 0.13 0.29 0.41 0.31 0.51 0.60 0.53 0.58 0.49 0.39 0.83 1.29 0.69 0.49 0.45 0.78 0.40 0.56 0.68 0.48 0.46 0.50 0.48 0.41 0.36 0.37 0.27 0.31 0.34 0.27 0.19 0.14 0.18 0.26 0.24 0.11 0.12 0.07 0.05 0.03 0.07 0.08 0.09 0.16 0.28 0.35 0.45 0.65 0.55 0.56 0.59
0.22 0.39 0.22 0.35 0.23 0.25 0.60 0.75 0.65 0.71 0.55 0.72 0.77 0.94 0.82 1.22 1.05 0.76 0.65 0.68 0.59 0.56 0.55 0.52 0.56 0.54 0.44 0.41 0.55 0.55 0.44 0.42 0.42 0.31 0.13 0.12 0.12 0.19 0.14 0.18 0.09 0.10 0.07 0.06 0.08 0.09 0.18 0.34 0.38 0.45 0.54 0.51
0.28 0.14 0.22 0.78 0.35 0.35 0.29 0.35 0.43 0.74 0.61 0.39 0.57 0.64 0.60 0.72 0.46 0.60 0.52 0.53 0.48 0.52 0.60 0.68 0.61 0.63 0.59 0.54 0.57 0.53 0.43 0.52 0.48 0.44 0.32 0.32 0.18 0.17 0.21 0.17 0.13 0.12 0.10 0.07 0.06 0.08 0.09 0.09 0.27 0.30 0.35 0.48
0.12 0.16 0.33 0.46 0.42 0.61 0.48 0.32 0.38 0.38 0.30 0.67 0.59 0.58 0.57 0.50 0.67 0.52 0.46 0.69 0.54 0.53 0.47 0.56 0.59 0.57 0.73 0.60 0.58 0.59 0.51 0.54 0.50 0.61 0.44 0.51 0.29 0.27 0.25 0.19 0.14 0.15 0.17 0.17 0.11 0.08 0.07 0.07 0.12 0.19 0.28 0.29
0.12 0.18 0.26 0.46 0.49 1.10 0.81 0.67 0.91 1.24 0.77 0.86 0.96 1.21 0.73 0.69 1.31 0.71 0.65 0.52 0.46 0.44 0.51 0.53 0.55 0.66 0.59 0.65 0.58 0.64 0.61 0.65 0.60 0.56 0.62 0.50 0.43 0.35 0.32 0.29 0.25 0.21 0.16 0.13 0.13 0.10 0.07 0.05 0.06 0.10 0.14 0.20
0.12 0.14 0.17 0.17 0.49 0.42 0.79 0.66 0.93 1.06 1.20 0.83 0.58 1.02 0.79 0.81 0.71 0.77 0.73 0.78 0.82 0.70 0.68 0.66 0.54 0.50 0.55 0.57 0.63 0.64 0.61 0.51 0.64 0.57 0.64 0.68 0.68 0.53 0.48 0.42 0.31 0.22 0.20 0.16 0.12 0.11 0.13 0.10 0.08 0.05 0.07 0.12
0.14 0.16 0.18 0.30 0.46 0.33 0.41 0.42 0.51 0.70 0.76 0.65 0.52 0.80 0.94 0.98 0.77 1.03 0.94 0.77 0.74 0.70 0.73 0.85 0.78 0.67 0.69 0.66 0.68 0.72 0.72 0.68 0.61 0.59 0.60 0.65 0.73 0.71 0.57 0.52 0.47 0.41 0.30 0.20 0.15 0.13 0.12 0.10 0.10 0.10 0.05 0.06
0.17 0.15 0.21 0.24 0.36 0.45 0.49 0.46 0.36 0.71 0.55 0.50 0.51 0.57 0.67 0.82 0.77 0.65 0.77 0.90 0.82 0.85 0.80 0.86 0.86 0.83 0.79 0.74 0.80 0.84 0.84 0.87 0.81 0.67 0.58 0.59 0.59 0.67 0.77 0.69 0.53 0.46 0.37 0.33 0.28 0.18 0.14 0.12 0.09 0.07 0.08 0.07
0.15 0.22 0.22 0.25 0.28 0.39 0.43 0.45 0.54 0.44 0.43 0.39 0.40 0.58 0.82 1.03 0.62 0.61 0.72 0.65 0.67 0.78 0.80 0.82 0.87 0.87 0.93 0.83 0.88 0.89 0.96 0.94 0.86 0.97 0.94 0.86 0.73 0.73 0.73 0.75 0.72 0.60 0.51 0.45 0.38 0.31 0.22 0.18 0.14 0.10 0.08 0.06
0.18 0.19 0.28 0.36 0.29 0.27 0.28 0.31 0.37 0.38 0.39 0.54 0.70 0.73 0.64 0.50 0.51 0.48 0.63 0.46 0.60 0.67 0.69 0.60 0.67 0.72 0.75 0.71 0.80 0.85 0.90 0.93 0.96 1.04 1.08 1.15 1.18 1.13 0.96 0.87 0.75 0.71 0.66 0.62 0.55 0.44 0.36 0.27 0.21 0.17 0.14 0.11
0.14 0.17 0.24 0.26 0.29 0.40 0.34 0.31 0.29 0.32 0.33 0.37 0.68 0.49 0.54 0.63 0.75 0.76 0.75 0.56 0.55 0.48 0.46 0.46 0.51 0.52 0.53 0.69 0.53 0.57 0.67 0.74 0.81 0.93 0.98 0.99 1.03 1.09 1.00 0.93 0.85 0.84 0.86 1.02 0.84 0.63 0.47 0.31 0.24 0.23 0.21 0.20
0.12 0.11 0.11 0.14 0.16 0.22 0.21 0.38 0.50 0.68 0.58 0.72 0.48 0.67 0.69 0.63 0.66 0.72 0.57 0.63 0.68 0.75 0.69 0.69 0.52 0.44 0.48 0.54 0.60 0.52 0.55 0.61 0.67 0.79 0.78 0.81 0.84 0.89 0.82 0.82 0.86 0.93 0.98 1.02 0.88 0.71 0.63 0.55 0.38 0.27 0.24 0.22
0.10 0.10 0.08 0.08 0.10 0.10 0.13 0.13 0.25 0.55 0.32 0.39 0.39 0.36 0.34 0.44 0.52 0.57 0.59 0.78 0.67 0.84 0.64 0.61 0.59 0.61 0.50 0.48 0.47 0.49 0.47 0.50 0.55 0.59 0.66 0.74 0.81 0.82 0.80 0.79 0.75 0.73 0.73 0.96 1.02 1.11 1.08 0.95 0.60 0.47 0.34 0.25
0.10 0.13 0.18 0.20 0.23 0.23 0.19 0.14 0.12 0.10 0.16 0.21 0.25 0.28 0.31 0.30 0.29 0.39 0.35 0.47 0.43 0.46 0.62 0.67 0.59 0.62 0.59 0.50 0.50 0.48 0.47 0.46 0.46 0.46 0.55 0.59 0.67 0.75 0.87 0.81 0.70 0.67 0.67 0.72 0.86 1.21 1.10 1.07 0.92 0.75 0.53 0.26
0.07 0.09 0.11 0.15 0.18 0.20 0.19 0.19 0.15 0.16 0.11 0.08 0.09 0.09 0.10 0.25 0.32 0.25 0.23 0.29 0.51 0.44 0.55 0.56 0.69 0.65 0.65 0.68 0.62 0.60 0.51 0.53 0.41 0.45 0.41 0.44 0.49 0.55 0.59 0.68 0.70 0.74 0.65 0.69 0.73 0.89 1.12 1.11 0.94 0.67 0.43 0.33
0.05 0.08 0.11 0.14 0.11 0.07 0.09 0.11 0.12 0.13 0.15 0.15 0.22 0.52 0.13 0.12 0.24 0.17 0.18 0.31 0.37 0.48 0.37 0.51 0.48 0.55 0.54 0.57 0.68 0.74 0.66 0.61 0.56 0.47 0.56 0.55 0.45 0.48 0.50 0.54 0.59 0.57 0.56 0.54 0.61 0.74 0.84 0.84 0.83 0.74 0.58 0.53

ECMWFFLT2_prec_precacc_162.txt.gz
Total_Precipitation_Accumulation
1.12 1.29 1.29 1.16 1.32 1.65 1.08 0.91 1.20 1.08 0.77 0.73 0.66 0.63 0.61 0.59 0.62 0.60 1.16 1.13 1.02 1.02 1.27 1.84 2.05 2.25 2.21 2.02 1.96 2.18 2.10 2.07 2.12 2.22 2.46 2.70 2.75 2.54 2.05 1.49 1.29 1.36 1.25 1.59 1.67 1.08 2.09 1.54 1.34 0.70 0.96 1.71
0.93 1.93 1.08 1.32 1.29 1.46 2.68 2.59 1.04 1.01 1.17 1.02 0.75 0.77 0.69 0.95 1.01 0.90 1.01 1.17 1.03 1.13 1.16 1.16 1.11 1.58 1.77 1.89 1.84 1.80 1.68 1.83 1.88 1.75 1.75 1.85 1.71 1.77 1.91 2.08 2.25 2.22 1.75 1.34 1.06 1.06 0.95 1.62 1.71 1.40 1.28 0.90
1.41 1.42 0.81 0.77 1.05 1.30 1.13 1.67 2.04 1.70 1.14 1.00 1.63 1.33 1.15 0.93 0.91 0.87 0.80 0.65 0.63 0.48 0.61 0.58 0.66 0.82 1.26 1.86 1.59 1.74 1.65 1.57 1.65 1.81 1.68 1.48 1.70 1.69 1.47 1.36 1.28 1.27 1.32 1.14 1.04 1.12 1.24 1.18 1.14 0.75 0.74 1.06
1.54 1.17 0.87 1.11 0.99 0.85 1.02 0.99 0.91 1.47 1.91 1.82 1.49 1.33 1.81 1.92 1.30 0.81 0.59 0.63 0.51 0.62 0.33 0.41 0.25 0.34 0.53 0.71 1.08 1.40 1.57 1.45 1.47 1.46 1.61 1.68 1.47 1.51 1.47 1.43 1.32 1.33 1.26 1.26 1.06 1.01 0.94 1.33 1.70 1.16 0.78 0.74
0.77 0.76 1.03 0.82 0.93 0.91 0.53 0.94 0.86 0.96 1.08 1.05 1.64 1.50 1.08 1.17 1.13 0.81 0.55 0.54 0.57 0.52 0.42 0.32 0.38 0.35 0.41 0.45 0.55 0.75 0.89 1.18 1.41 1.56 1.41 1.42 1.31 1.47 1.30 1.41 1.50 1.32 1.38 1.26 1.08 0.92 0.92 0.93 1.05 1.19 1.20 0.96
0.52 0.54 0.47 0.79 0.88 0.69 0.65 0.48 0.45 0.66 0.90 0.70 0.76 0.80 0.80 0.99 1.11 1.13 1.01 0.90 0.63 0.65 0.61 0.59 0.42 0.44 0.36 0.42 0.57 0.67 1.02 0.95 0.99 1.24 1.32 1.34 1.44 1.22 1.11 1.33 1.40 1.56 1.44 1.42 1.25 1.37 1.11 1.02 1.08 0.98 0.81 0.90
0.91 0.44 0.52 0.51 0.68 0.59 0.48 0.47 0.53 0.73 0.79 0.71 1.02 0.76 0.68 0.51 0.54 0.59 0.65 0.73 0.75 0.82 0.75 0.66 0.60 0.47 0.42 0.42 0.53 0.70 0.66 0.94 1.13 1.32 1.05 0.94 1.14 1.37 1.42 1.34 1.33 1.45 1.48 1.63 1.21 1.26 1.27 1.37 1.15 1.04 0.98 0.77
0.88 1.16 0.65 0.63 1.08 0.78 0.62 0.49 0.65 0.59 0.88 1.30 0.67 0.87 0.66 0.56 0.49 0.45 0.43 0.43 0.50 0.50 0.48 0.52 0.40 0.40 0.44 0.40 0.38 0.38 0.53 0.59 0.67 0.77 0.84 0.87 0.87 0.85 0.96 1.20 1.19 1.27 1.59 1.37 1.35 1.22 1.23 1.24 1.27 1.12 1.21 1.06
1.27 1.73 1.11 1.18 0.99 0.68 0.66 0.46 0.38 0.48 0.47 0.51 0.45 0.50 0.72 0.69 0.64 0.51 0.59 0.47 0.41 0.42 0.38 0.37 0.32 0.34 0.27 0.28 0.31 0.31 0.44 0.42 0.46 0.49 0.68 0.61 0.69 0.74 0.77 0.73 0.80 1.00 1.27 1.29 1.24 1.20 1.18 1.27 1.21 1.01 1.04 1.06
0.69 1.21 1.60 1.15 1.29 1.38 1.21 0.88 0.89 0.59 0.58 0.44 0.43 0.45 0.41 0.52 0.41 0.56 0.44 0.44 0.35 0.22 0.20 0.19 0.21 0.19 0.27 0.29 0.32 0.49 0.37 0.35 0.37 0.41 0.43 0.54 0.56 0.59 0.53 0.58 0.57 0.60 0.81 1.06 1.19 1.15 1.04 1.07 1.06 1.05 1.04 0.97
0.62 0.67 1.16 1.52 1.81 1.11 1.35 0.92 0.77 0.61 0.72 0.75 0.58 0.76 0.59 0.59 0.49 0.57 0.48 0.35 0.57 0.37 0.34 0.28 0.28 0.33 0.36 0.28 0.23 0.25 0.29 0.21 0.33 0.25 0.23 0.21 0.21 0.35 0.39 0.43 0.44 0.57 0.62 0.69 0.83 1.00 1.14 1.09 0.97 0.93 0.99 0.96
0.78 0.64 0.60 0.93 1.12 1.69 1.43 1.66 1.59 1.22 1.11 1.23 0.89 0.84 0.74 0.95 0.80 0.63 0.63 0.63 0.48 0.54 0.69 0.46 0.47 0.38 0.29 0.22 0.25 0.22 0.23 0.19 0.15 0.25 0.23 0.19 0.13 0.15 0.23 0.33 0.38 0.44 0.48 0.61 0.62 0.68 0.84 0.97 0.91 0.86 0.83 0.79
0.48 0.66 0.75 0.93 1.14 0.88 0.90 0.84 0.98 0.85 1.13 0.90 0.83 0.63 0.51 0.65 0.55 0.63 0.57 0.51 0.46 0.58 0.49 0.40 0.34 0.39 0.35 0.33 0.34 0.37 0.19 0.18 0.17 0.19 0.21 0.17 0.16 0.18 0.22 0.25 0.31 0.38 0.39 0.48 0.61 0.59 0.61 0.73 0.82 0.80 0.83 0.74
0.36 0.53 0.62 0.55 0.58 0.76 0.67 0.79 0.83 0.85 1.03 0.81 0.62 0.67 0.79 0.71 0.67 0.53 0.67 0.69 0.58 0.56 0.64 0.42 0.38 0.42 0.40 0.38 0.30 0.21 0.16 0.14 0.11 0.12 0.11 0.13 0.12 0.15 0.13 0.13 0.17 0.28 0.36 0.37 0.45 0.57 0.60 0.62 0.63 0.73 0.77 0.80
0.15 0.17 0.49 0.58 0.67 0.36 0.34 0.56 0.59 0.73 0.59 0.56 0.68 0.65 0.63 0.66 0.64 0.58 0.51 0.57 0.37 0.46 0.37 0.40 0.33 0.34 0.30 0.37 0.26 0.46 0.19 0.21 0.15 0.10 0.08 0.08 0.09 0.14 0.07 0.07 0.14 0.15 0.16 0.26 0.34 0.43 0.50 0.58 0.56 0.53 0.71 0.72
0.15 0.13 0.29 0.41 0.31 0.51 0.60 0.53 0.58 0.49 0.39 0.83 1.29 0.69 0.49 0.45 0.78 0.40 0.56 0.68 0.48 0.46 0.50 0.48 0.41 0.36 0.37 0.27 0.31 0.34 0.27 0.19 0.14 0.18 0.26 0.24 0.12 0.12 0.08 0.06 0.06 0.12 0.12 0.10 0.17 0.29 0.36 0.45 0.65 0.56 0.57 0.60
0.22 0.39 0.22 0.35 0.23 0.25 0.60 0.75 0.65 0.71 0.55 0.72 0.77 0.94 0.82 1.22 1.05 0.76 0.65 0.68 0.59 0.56 0.55 0.52 0.56 0.54 0.44 0.41 0.55 0.55 0.44 0.42 0.42 0.31 0.13 0.12 0.12 0.19 0.14 0.19 0.10 0.12 0.10 0.10 0.10 0.10 0.19 0.35 0.38 0.46 0.55 0.51
0.28 0.14 0.22 0.78 0.35 0.35 0.29 0.35 0.43 0.74 0.61 0.39 0.57 0.64 0.60 0.72 0.46 0.60 0.52 0.53 0.48 0.52 0.60 0.68 0.61 0.63 0.59 0.54 0.57 0.53 0.43 0.52 0.48 0.44 0.32 0.32 0.18 0.17 0.22 0.17 0.13 0.14 0.12 0.10 0.10 0.12 0.12 0.11 0.28 0.31 0.36 0.49
0.12 0.16 0.33 0.46 0.42 0.61 0.48 0.32 0.38 0.38 0.30 0.67 0.59 0.58 0.57 0.50 0.67 0.52 0.46 0.69 0.54 0.53 0.47 0.56 0.59 0.57 0.73 0.60 0.58 0.59 0.51 0.54 0.50 0.61 0.44 0.51 0.29 0.27 0.25 0.19 0.15 0.16 0.18 0.18 0.12 0.12 0.12 0.11 0.14 0.20 0.29 0.30
0.12 0.18 0.26 0.46 0.49 1.10 0.81 0.67 0.91 1.24 0.77 0.86 0.96 1.21 0.73 0.69 1.31 0.71 0.65 0.52 0.46 0.44 0.51 0.53 0.55 0.66 0.59 0.65 0.58 0.64 0.61 0.65 0.60 0.56 0.62 0.50 0.43 0.35 0.32 0.29 0.25 0.22 0.17 0.14 0.15 0.11 0.08 0.08 0.10 0.12 0.15 0.21
0.12 0.14 0.17 0.17 0.49 0.42 0.79 0.66 0.93 1.06 1.20 0.83 0.58 1.02 0.79 0.81 0.71 0.77 0.73 0.78 0.82 0.70 0.68 0.66 0.54 0.50 0.55 0.57 0.63 0.64 0.61 0.51 0.64 0.57 0.64 0.68 0.68 0.53 0.48 0.42 0.31 0.22 0.20 0.17 0.13 0.12 0.14 0.13 0.10 0.07 0.08 0.14
0.14 0.16 0.18 0.30 0.46 0.33 0.41 0.42 0.51 0.70 0.76 0.65 0.52 0.80 0.94 0.98 0.77 1.03 0.94 0.77 0.74 0.70 0.73 0.85 0.78 0.67 0.69 0.66 0.68 0.72 0.72 0.68 0.61 0.59 0.60 0.65 0.73 0.71 0.57 0.52 0.47 0.41 0.31 0.21 0.15 0.13 0.12 0.11 0.12 0.12 0.08 0.08
0.17 0.15 0.21 0.24 0.36 0.45 0.49 0.46 0.36 0.71 0.55 0.50 0.51 0.57 0.67 0.82 0.77 0.65 0.77 0.90 0.82 0.85 0.80 0.86 0.86 0.83 0.79 0.74 0.80 0.84 0.84 0.87 0.81 0.67 0.58 0.59 0.59 0.67 0.77 0.69 0.53 0.46 0.37 0.33 0.29 0.18 0.14 0.13 0.10 0.09 0.10 0.11
0.15 0.22 0.22 0.25 0.28 0.39 0.43 0.45 0.54 0.44 0.43 0.39 0.40 0.58 0.82 1.03 0.62 0.61 0.72 0.65 0.67 0.78 0.80 0.82 0.87 0.87 0.93 0.83 0.88 0.89 0.96 0.94 0.86 0.97 0.94 0.86 0.73 0.73 0.73 0.75 0.72 0.60 0.51 0.45 0.38 0.31 0.22 0.18 0.15 0.12 0.10 0.10
0.18 0.19 0.28 0.36 0.29 0.27 0.28 0.31 0.37 0.38 0.39 0.54 0.70 0.73 0.64 0.50 0.51 0.48 0.63 0.46 0.60 0.67 0.69 0.60 0.67 0.72 0.75 0.71 0.80 0.85 0.90 0.93 0.96 1.04 1.08 1.15 1.18 1.13 0.96 0.87 0.75 0.71 0.66 0.62 0.55 0.44 0.36 0.27 0.21 0.18 0.16 0.16
0.14 0.17 0.24 0.26 0.29 0.40 0.34 0.31 0.29 0.32 0.33 0.37 0.68 0.49 0.54 0.63 0.75 0.76 0.75 0.56 0.55 0.48 0.46 0.46 0.51 0.52 0.53 0.69 0.53 0.57 0.67 0.74 0.81 0.93 0.98 0.99 1.03 1.09 1.00 0.93 0.85 0.84 0.86 1.02 0.84 0.63 0.47 0.32 0.25 0.24 0.24 0.23
0.12 0.11 0.11 0.14 0.16 0.22 0.21 0.38 0.50 0.68 0.58 0.72 0.48 0.67 0.69 0.63 0.66 0.72 0.57 0.63 0.68 0.75 0.69 0.69 0.52 0.44 0.48 0.54 0.60 0.52 0.55 0.61 0.67 0.79 0.78 0.81 0.84 0.89 0.82 0.82 0.86 0.93 0.98 1.02 0.88 0.71 0.63 0.55 0.39 0.27 0.25 0.25
0.10 0.10 0.08 0.08 0.10 0.10 0.13 0.13 0.25 0.55 0.32 0.39 0.39 0.36 0.34 0.44 0.52 0.57 0.59 0.78 0.67 0.84 0.64 0.61 0.59 0.61 0.50 0.48 0.47 0.49 0.47 0.50 0.55 0.59 0.66 0.74 0.81 0.82 0.80 0.79 0.75 0.73 0.73 0.96 1.02 1.11 1.08 0.95 0.60 0.48 0.35 0.26
0.10 0.13 0.18 0.20 0.23 0.23 0.19 0.14 0.12 0.10 0.16 0.21 0.25 0.28 0.31 0.30 0.29 0.39 0.35 0.47 0.43 0.46 0.62 0.67 0.59 0.62 0.59 0.50 0.50 0.48 0.47 0.46 0.46 0.46 0.55 0.59 0.67 0.75 0.87 0.81 0.70 0.67 0.67 0.72 0.86 1.21 1.10 1.07 0.92 0.76 0.55 0.28
0.07 0.09 0.11 0.15 0.18 0.20 0.19 0.19 0.15 0.16 0.11 0.08 0.09 0.09 0.10 0.25 0.32 0.25 0.23 0.29 0.51 0.44 0.55 0.56 0.69 0.65 0.65 0.68 0.62 0.60 0.51 0.53 0.41 0.45 0.41 0.44 0.49 0.55 0.59 0.68 0.70 0.74 0.65 0.69 0.73 0.89 1.12 1.13 0.96 0.68 0.44 0.34
0.05 0.08 0.11 0.14 0.11 0.07 0.09 0.11 0.12 0.13 0.15 0.15 0.22 0.52 0.13 0.12 0.24 0.17 0.18 0.31 0.37 0.48 0.37 0.51 0.48 0.55 0.54 0.57 0.68 0.74 0.66 0.61 0.56 0.47 0.56 0.55 0.45 0.48 0.50 0.54 0.59 0.57 0.56 0.54 0.61 0.74 0.84 0.85 0.84 0.75 0.60 0.54

ECMWFFLT2_prec_precacc_168.txt.gz
Total_Precipitation_Accumulation
1.12 1.29 1.29 1.16 1.32 1.65 1.08 0.91 1.20 1.08 0.77 0.73 0.66 0.63 0.61 0.59 0.62 0.60 1.16 1.13 1.02 1.02 1.27 1.84 2.05 2.25 2.21 2.02 1.96 2.18 2.10 2.07 2.12 2.22 2.46 2.70 2.76 2.54 2.05 1.49 1.29 1.36 1.25 1.60 1.67 1.08 2.09 1.54 1.34 0.70 0.96 1.71
0.93 1.93 1.08 1.32 1.29 1.46 2.68 2.59 1.04 1.01 1.17 1.02 0.75 0.77 0.69 0.95 1.01 0.90 1.01 1.17 1.03 1.13 1.16 1.16 1.11 1.58 1.77 1.89 1.84 1.80 1.68 1.83 1.88 1.75 1.75 1.85 1.71 1.77 1.91 2.08 2.25 2.22 1.75 1.34 1.06 1.06 0.95 1.62 1.71 1.40 1.28 0.90
1.41 1.42 0.81 0.77 1.05 1.30 1.13 1.67 2.04 1.70 1.14 1.00 1.63 1.33 1.15 0.93 0.91 0.87 0.80 0.65 0.63 0.48 0.61 0.58 0.66 0.82 1.26 1.86 1.59 1.74 1.65 1.57 1.65 1.81 1.68 1.48 1.70 1.69 1.47 1.36 1.28 1.27 1.32 1.14 1.04 1.12 1.24 1.18 1.14 0.75 0.74 1.06
1.54 1.17 0.87 1.11 0.99 0.85 1.02 0.99 0.91 1.47 1.91 1.82 1.49 1.33 1.81 1.92 1.30 0.81 0.59 0.63 0.51 0.62 0.33 0.41 0.25 0.34 0.53 0.71 1.08 1.40 1.57 1.45 1.47 1.46 1.61 1.68 1.47 1.51 1.47 1.43 1.32 1.33 1.26 1.26 1.06 1.01 0.94 1.33 1.70 1.16 0.78 0.74
0.77 0.76 1.03 0.82 0.93 0.91 0.53 0.94 0.86 0.96 1.08 1.05 1.64 1.50 1.08 1.17 1.13 0.81 0.55 0.54 0.57 0.52 0.42 0.32 0.38 0.35 0.41 0.45 0.55 0.75 0.89 1.18 1.41 1.56 1.41 1.42 1.31 1.47 1.30 1.41 1.50 1.32 1.38 1.26 1.08 0.92 0.92 0.93 1.05 1.19 1.20 0.96
0.52 0.54 0.47 0.79 0.88 0.69 0.65 0.48 0.45 0.66 0.90 0.70 0.76 0.80 0.80 0.99 1.11 1.13 1.01 0.90 0.63 0.65 0.61 0.59 0.42 0.44 0.36 0.42 0.57 0.67 1.02 0.95 0.99 1.24 1.32 1.34 1.44 1.22 1.11 1.33 1.40 1.56 1.44 1.42 1.25 1.37 1.11 1.02 1.08 0.98 0.81 0.90
0.91 0.44 0.52 0.51 0.68 0.59 0.48 0.47 0.53 0.73 0.79 0.71 1.02 0.76 0.68 0.51 0.54 0.59 0.65 0.73 0.75 0.82 0.75 0.66 0.60 0.47 0.42 0.42 0.53 0.70 0.66 0.94 1.13 1.32 1.05 0.94 1.14 1.37 1.42 1.34 1.33 1.45 1.48 1.63 1.21 1.26 1.27 1.37 1.15 1.04 0.98 0.77
0.88 1.16 0.65 0.63 1.08 0.78 0.62 0.49 0.65 0.59 0.88 1.30 0.67 0.87 0.66 0.56 0.49 0.45 0.43 0.43 0.50 0.50 0.48 0.52 0.40 0.40 0.44 0.40 0.38 0.38 0.53 0.59 0.67 0.77 0.84 0.87 0.87 0.85 0.96 1.20 1.19 1.27 1.59 1.37 1.35 1.22 1.23 1.24 1.27 1.12 1.21 1.06
1.27 1.73 1.11 1.18 0.99 0.68 0.66 0.46 0.38 0.48 0.47 0.51 0.45 0.50 0.72 0.69 0.64 0.51 0.59 0.47 0.41 0.42 0.38 0.37 0.32 0.34 0.27 0.28 0.31 0.31 0.44 0.42 0.46 0.49 0.68 0.61 0.69 0.74 0.77 0.73 0.80 1.00 1.27 1.29 1.24 1.20 1.18 1.27 1.21 1.01 1.04 1.06
0.69 1.21 1.60 1.15 1.29 1.38 1.21 0.88 0.89 0.59 0.58 0.44 0.43 0.45 0.41 0.52 0.41 0.56 0.44 0.44 0.35 0.22 0.20 0.19 0.21 0.19 0.27 0.29 0.32 0.49 0.37 0.35 0.37 0.41 0.43 0.54 0.56 0.59 0.53 0.58 0.57 0.60 0.81 1.06 1.19 1.15 1.04 1.07 1.06 1.05 1.04 0.97
0.62 0.67 1.16 1.52 1.81 1.11 1.35 0.92 0.77 0.61 0.72 0.75 0.58 0.76 0.59 0.59 0.49 0.57 0.48 0.35 0.57 0.37 0.34 0.28 0.28 0.33 0.36 0.28 0.23 0.25 0.29 0.21 0.33 0.25 0.23 0.21 0.21 0.35 0.39 0.43 0.44 0.57 0.62 0.69 0.83 1.00 1.14 1.09 0.97 0.93 0.99 0.96
0.78 0.64 0.60 0.93 1.12 1.69 1.43 1.66 1.59 1.22 1.11 1.23 0.89 0.84 0.74 0.95 0.80 0.63 0.63 0.63 0.48 0.54 0.69 0.46 0.47 0.38 0.29 0.22 0.25 0.22 0.23 0.19 0.15 0.25 0.23 0.19 0.13 0.15 0.23 0.33 0.38 0.44 0.48 0.61 0.62 0.68 0.84 0.97 0.91 0.86 0.83 0.79
0.48 0.66 0.75 0.93 1.14 0.88 0.90 0.84 0.98 0.85 1.13 0.90 0.83 0.63 0.51 0.65 0.55 0.63 0.57 0.51 0.46 0.58 0.49 0.40 0.34 0.39 0.35 0.33 0.34 0.37 0.19 0.18 0.17 0.19 0.21 0.17 0.16 0.18 0.22 0.25 0.31 0.38 0.39 0.48 0.61 0.59 0.61 0.73 0.82 0.80 0.83 0.74
0.36 0.53 0.62 0.55 0.58 0.76 0.67 0.79 0.83 0.85 1.03 0.81 0.62 0.67 0.79 0.71 0.67 0.53 0.67 0.69 0.58 0.56 0.64 0.42 0.38 0.42 0.40 0.38 0.30 0.21 0.16 0.14 0.11 0.12 0.11 0.13 0.12 0.15 0.13 0.13 0.17 0.28 0.36 0.37 0.45 0.57 0.60 0.62 0.63 0.73 0.77 0.80
0.15 0.17 0.49 0.58 0.67 0.36 0.34 0.56 0.59 0.73 0.59 0.56 0.68 0.65 0.63 0.66 0.64 0.58 0.51 0.57 0.37 0.46 0.37 0.40 0.33 0.34 0.30 0.37 0.26 0.46 0.19 0.21 0.15 0.10 0.08 0.08 0.09 0.14 0.07 0.07 0.14 0.15 0.16 0.26 0.34 0.43 0.50 0.58 0.56 0.53 0.71 0.72
0.15 0.13 0.29 0.41 0.31 0.51 0.60 0.53 0.58 0.49 0.39 0.83 1.29 0.69 0.49 0.45 0.78 0.40 0.56 0.68 0.48 0.46 0.50 0.48 0.41 0.36 0.37 0.27 0.31 0.34 0.27 0.19 0.14 0.18 0.26 0.24 0.12 0.12 0.08 0.06 0.06 0.12 0.12 0.10 0.17 0.29 0.36 0.45 0.65 0.56 0.57 0.60
0.22 0.39 0.22 0.35 0.23 0.25 0.60 0.75 0.65 0.71 0.55 0.72 0.77 0.94 0.82 1.22 1.05 0.76 0.65 0.68 0.59 0.56 0.55 0.52 0.56 0.54 0.44 0.41 0.55 0.55 0.44 0.42 0.42 0.31 0.13 0.12 0.12 0.19 0.14 0.19 0.10 0.12 0.10 0.10 0.10 0.10 0.19 0.35 0.38 0.46 0.55 0.51
0.28 0.14 0.22 0.78 0.35 0.35 0.29 0.35 0.43 0.74 0.61 0.39 0.57 0.64 0.60 0.72 0.46 0.60 0.52 0.53 0.48 0.52 0.60 0.68 0.61 0.63 0.59 0.54 0.57 0.53 0.43 0.52 0.48 0.44 0.32 0.32 0.18 0.17 0.22 0.17 0.13 0.14 0.12 0.10 0.10 0.12 0.12 0.11 0.28 0.31 0.36 0.49
0.12 0.16 0.33 0.46 0.42 0.61 0.48 0.32 0.38 0.38 0.30 0.67 0.59 0.58 0.57 0.50 0.67 0.52 0.46 0.69 0.54 0.53 0.47 0.56 0.59 0.57 0.73 0.60 0.58 0.59 0.51 0.54 0.50 0.61 0.44 0.51 0.29 0.27 0.25 0.19 0.15 0.16 0.18 0.18 0.12 0.12 0.12 0.11 0.14 0.20 0.29 0.30
0.12 0.18 0.26 0.46 0.49 1.10 0.81 0.67 0.91 1.24 0.77 0.86 0.96 1.21 0.73 0.69 1.31 0.71 0.65 0.52 0.46 0.44 0.51 0.53 0.55 0.66 0.59 0.65 0.58 0.64 0.61 0.65 0.60 0.56 0.62 0.50 0.43 0.35 0.32 0.29 0.25 0.22 0.17 0.14 0.15 0.11 0.08 0.08 0.10 0.12 0.15 0.21
0.12 0.14 0.17 0.17 0.49 0.42 0.79 0.66 0.93 1.06 1.20 0.83 0.58 1.02 0.79 0.81 0.71 0.77 0.73 0.78 0.82 0.70 0.68 0.66 0.54 0.50 0.55 0.57 0.63 0.64 0.61 0.51 0.64 0.57 0.64 0.68 0.68 0.53 0.48 0.42 0.31 0.22 0.20 0.17 0.13 0.12 0.14 0.13 0.10 0.07 0.08 0.14
0.14 0.16 0.18 0.30 0.46 0.33 0.41 0.42 0.51 0.70 0.76 0.65 0.52 0.80 0.94 0.98 0.77 1.03 0.94 0.77 0.74 0.70 0.73 0.85 0.78 0.67 0.69 0.66 0.68 0.72 0.72 0.68 0.61 0.59 0.60 0.65 0.73 0.71 0.57 0.52 0.47 0.41 0.31 0.21 0.15 0.13 0.12 0.11 0.12 0.12 0.08 0.08
0.17 0.15 0.21 0.24 0.36 0.45 0.49 0.46 0.36 0.71 0.55 0.50 0.51 0.57 0.67 0.82 0.77 0.65 0.77 0.90 0.82 0.85 0.80 0.86 0.86 0.83 0.79 0.74 0.80 0.84 0.84 0.87 0.81 0.67 0.58 0.59 0.59 0.67 0.77 0.69 0.53 0.46 0.37 0.33 0.29 0.18 0.14 0.13 0.10 0.09 0.10 0.11
0.15 0.22 0.22 0.25 0.28 0.39 0.43 0.45 0.54 0.44 0.43 0.39 0.40 0.58 0.82 1.03 0.62 0.61 0.72 0.65 0.67 0.78 0.80 0.82 0.87 0.87 0.93 0.83 0.88 0.89 0.96 0.94 0.86 0.97 0.94 0.86 0.73 0.73 0.73 0.75 0.72 0.60 0.51 0.45 0.38 0.31 0.22 0.18 0.15 0.12 0.10 0.10
0.18 0.19 0.28 0.36 0.29 0.27 0.28 0.31 0.37 0.38 0.39 0.54 0.70 0.73 0.64 0.50 0.51 0.48 0.63 0.46 0.60 0.67 0.69 0.60 0.67 0.72 0.75 0.71 0.80 0.85 0.90 0.93 0.96 1.04 1.08 1.15 1.18 1.13 0.96 0.87 0.75 0.71 0.66 0.62 0.55 0.44 0.36 0.27 0.21 0.18 0.16 0.16
0.14 0.17 0.24 0.26 0.29 0.40 0.34 0.31 0.29 0.32 0.33 0.37 0.68 0.49 0.54 0.63 0.75 0.76 0.75 0.56 0.55 0.48 0.46 0.46 0.51 0.52 0.53 0.69 0.53 0.57 0.67 0.74 0.81 0.93 0.98 0.99 1.03 1.09 1.00 0.93 0.85 0.84 0.86 1.02 0.84 0.63 0.47 0.32 0.25 0.24 0.24 0.23
0.12 0.11 0.11 0.14 0.16 0.22 0.21 0.38 0.50 0.68 0.58 0.72 0.48 0.67 0.69 0.63 0.66 0.72 0.57 0.63 0.68 0.75 0.69 0.69 0.52 0.44 0.48 0.54 0.60 0.52 0.55 0.61 0.67 0.79 0.78 0.81 0.84 0.89 0.82 0.82 0.86 0.93 0.98 1.02 0.88 0.71 0.63 0.55 0.39 0.27 0.25 0.25
0.10 0.10 0.08 0.08 0.10 0.10 0.13 0.13 0.25 0.55 0.32 0.39 0.39 0.36 0.34 0.44 0.52 0.57 0.59 0.78 0.67 0.84 0.64 0.61 0.59 0.61 0.50 0.48 0.47 0.49 0.47 0.50 0.55 0.59 0.66 0.74 0.81 0.82 0.80 0.79 0.75 0.73 0.73 0.96 1.02 1.11 1.08 0.95 0.60 0.48 0.35 0.26
0.10 0.13 0.18 0.20 0.23 0.23 0.19 0.14 0.12 0.10 0.16 0.21 0.25 0.28 0.31 0.30 0.29 0.39 0.35 0.47 0.43 0.46 0.62 0.67 0.59 0.62 0.59 0.50 0.50 0.48 0.47 0.46 0.46 0.46 0.55 0.59 0.67 0.75 0.87 0.81 0.70 0.67 0.67 0.72 0.86 1.21 1.10 1.07 0.92 0.76 0.55 0.28
0.07 0.09 0.11 0.15 0.18 0.20 0.19 0.19 0.15 0.16 0.11 0.08 0.09 0.09 0.10 0.25 0.32 0.25 0.23 0.29 0.51 0.44 0.55 0.56 0.69 0.65 0.65 0.68 0.62 0.60 0.51 0.53 0.41 0.45 0.41 0.44 0.49 0.55 0.59 0.68 0.70 0.74 0.65 0.69 0.73 0.89 1.12 1.13 0.96 0.68 0.44 0.34
0.05 0.08 0.11 0.14 0.11 0.07 0.09 0.11 0.12 0.13 0.15 0.15 0.22 0.52 0.13 0.12 0.24 0.17 0.18 0.31 0.37 0.48 0.37 0.51 0.48 0.55 0.54 0.57 0.68 0.74 0.66 0.61 0.56 0.47 0.56 0.55 0.45 0.48 0.50 0.54 0.59 0.57 0.56 0.54 0.61 0.74 0.84 0.85 0.84 0.75 0.60 0.54